Observation data for Panhandle on 02/14/2017      Previous  Date  Next       Current Mesonet Observations  Soil Data  Daily Summary Page  Observations in Plain Language
KPA1 140600Z 33010KT 02/01 A3005 RMK A01 T00230011  RH  092%=      5-min Rain = 0
KPA1 140601Z 33010KT 02/01 A3005 RMK A01 T00240011  RH  092%=      5-min Rain = 0
KPA1 140602Z 33010KT 02/01 A3005 RMK A01 T00230011  RH  092%=      5-min Rain = 0
KPA1 140603Z 33010KT 02/01 A3005 RMK A01 T00230011  RH  092%=      5-min Rain = 0
KPA1 140604Z 33010KT 02/01 A3005 RMK A01 T00230011  RH  092%=      5-min Rain = 0
KPA1 140605Z 33011KT 02/01 A3005 RMK A01 T00230011  RH  092%=      5-min Rain = 0
KPA1 140606Z 33011KT 02/01 A3004 RMK A01 T00230011  RH  092%=      5-min Rain = 0
KPA1 140607Z 33011KT 02/01 A3004 RMK A01 T00230011  RH  092%=      5-min Rain = 0
KPA1 140608Z 33010KT 02/01 A3004 RMK A01 T00230011  RH  092%=      5-min Rain = 0
KPA1 140609Z 33011KT 02/01 A3004 RMK A01 T00240011  RH  091%=      5-min Rain = 0
KPA1 140610Z 33011KT 02/01 A3004 RMK A01 T00230010  RH  091%=      5-min Rain = 0
KPA1 140611Z 33011KT 02/01 A3004 RMK A01 T00230011  RH  091%=      5-min Rain = 0
KPA1 140612Z 33009KT 02/01 A3005 RMK A01 T00230011  RH  091%=      5-min Rain = 0
KPA1 140613Z 33011KT 02/01 A3005 RMK A01 T00230011  RH  091%=      5-min Rain = 0
KPA1 140614Z 33011KT 02/01 A3005 RMK A01 T00230010  RH  091%=      5-min Rain = 0
KPA1 140615Z 33010KT 02/01 A3005 RMK A01 T00230010  RH  091%=      5-min Rain = 0
KPA1 140616Z 33010KT 02/01 A3005 RMK A01 T00230009  RH  090%=      5-min Rain = 0
KPA1 140617Z 33010KT 02/01 A3005 RMK A01 T00240009  RH  090%=      5-min Rain = 0
KPA1 140618Z 33009KT 02/01 A3005 RMK A01 T00230008  RH  090%=      5-min Rain = 0
KPA1 140619Z 33009KT 02/01 A3005 RMK A01 T00230008  RH  090%=      5-min Rain = 0
KPA1 140620Z 33009KT 02/01 A3005 RMK A01 T00230008  RH  090%=      5-min Rain = 0
KPA1 140621Z 33009KT 02/01 A3005 RMK A01 T00240008  RH  090%=      5-min Rain = 0
KPA1 140622Z 34009KT 02/01 A3005 RMK A01 T00230007  RH  089%=      5-min Rain = 0
KPA1 140623Z 34010KT 02/01 A3005 RMK A01 T00230007  RH  089%=      5-min Rain = 0
KPA1 140624Z 34011KT 02/01 A3005 RMK A01 T00230007  RH  089%=      5-min Rain = 0
KPA1 140625Z 34011KT 02/01 A3005 RMK A01 T00230005  RH  088%=      5-min Rain = 0
KPA1 140626Z 33010KT 02/01 A3005 RMK A01 T00240005  RH  087%=      5-min Rain = 0
KPA1 140627Z 34009KT 02/01 A3005 RMK A01 T00240005  RH  087%=      5-min Rain = 0
KPA1 140628Z 34009KT 02/00 A3005 RMK A01 T00240004  RH  087%=      5-min Rain = 0
KPA1 140629Z 34010KT 02/00 A3005 RMK A01 T00240004  RH  087%=      5-min Rain = 0
KPA1 140630Z 34011KT 02/00 A3005 RMK A01 T00240003  RH  086%=      5-min Rain = 0
KPA1 140631Z 34009KT 02/00 A3005 RMK A01 T00240003  RH  086%=      5-min Rain = 0
KPA1 140632Z 34008KT 02/00 A3005 RMK A01 T00240003  RH  086%=      5-min Rain = 0
KPA1 140633Z 33009KT 02/00 A3005 RMK A01 T00240004  RH  087%=      5-min Rain = 0
KPA1 140634Z 34009KT 02/00 A3005 RMK A01 T00240003  RH  086%=      5-min Rain = 0
KPA1 140635Z 34009KT 02/00 A3005 RMK A01 T00240003  RH  086%=      5-min Rain = 0
KPA1 140636Z 34010KT 02/00 A3005 RMK A01 T00240002  RH  086%=      5-min Rain = 0
KPA1 140637Z 34010KT 02/00 A3005 RMK A01 T00240002  RH  086%=      5-min Rain = 0
KPA1 140638Z 34010KT 02/00 A3005 RMK A01 T00240002  RH  085%=      5-min Rain = 0
KPA1 140639Z 34010KT 02/00 A3005 RMK A01 T00240002  RH  085%=      5-min Rain = 0
KPA1 140640Z 34009KT 02/00 A3005 RMK A01 T00240002  RH  085%=      5-min Rain = 0
KPA1 140641Z 34010KT 02/00 A3005 RMK A01 T00240001  RH  085%=      5-min Rain = 0
KPA1 140642Z 34010KT 02/00 A3005 RMK A01 T00240001  RH  085%=      5-min Rain = 0
KPA1 140643Z 34009KT 02/00 A3005 RMK A01 T00240001  RH  085%=      5-min Rain = 0
KPA1 140644Z 34011KT 02/00 A3005 RMK A01 T00240001  RH  085%=      5-min Rain = 0
KPA1 140645Z 34010KT 02/00 A3005 RMK A01 T00240001  RH  084%=      5-min Rain = 0
KPA1 140646Z 35009KT 03/00 A3005 RMK A01 T00250000  RH  084%=      5-min Rain = 0
KPA1 140647Z 35010KT 03/00 A3006 RMK A01 T00250001  RH  084%=      5-min Rain = 0
KPA1 140648Z 35011KT 03/00 A3005 RMK A01 T00250000  RH  084%=      5-min Rain = 0
KPA1 140649Z 35011KT 03/M00 A3005 RMK A01 T00251001  RH  083%=      5-min Rain = 0
KPA1 140650Z 35011KT 03/M00 A3005 RMK A01 T00251002  RH  083%=      5-min Rain = 0
KPA1 140651Z 35011KT 03/M00 A3005 RMK A01 T00251003  RH  082%=      5-min Rain = 0
KPA1 140652Z 35012KT 03/M00 A3005 RMK A01 T00251002  RH  082%=      5-min Rain = 0
KPA1 140653Z 35010KT 03/M00 A3005 RMK A01 T00251003  RH  082%=      5-min Rain = 0
KPA1 140654Z 35012KT 03/M00 A3005 RMK A01 T00251001  RH  083%=      5-min Rain = 0
KPA1 140655Z 35012KT 03/M00 A3005 RMK A01 T00251002  RH  082%=      5-min Rain = 0
KPA1 140656Z 35010KT 03/M00 A3005 RMK A01 T00251002  RH  082%=      5-min Rain = 0
KPA1 140657Z 35011KT 03/M00 A3005 RMK A01 T00251001  RH  083%=      5-min Rain = 0
KPA1 140658Z 34012KT 02/M00 A3005 RMK A01 T00241001  RH  083%=      5-min Rain = 0
KPA1 140659Z 35011KT 02/M00 A3005 RMK A01 T00241001  RH  083%=      5-min Rain = 0
KPA1 140700Z 34009KT 02/M00 A3005 RMK A01 T00241001  RH  084%=      5-min Rain = 0
KPA1 140701Z 35010KT 02/00 A3005 RMK A01 T00240000  RH  084%=      5-min Rain = 0
KPA1 140702Z 35010KT 02/00 A3005 RMK A01 T002400-0  RH  084%=      5-min Rain = 0
KPA1 140703Z 35009KT 02/00 A3005 RMK A01 T00240000  RH  084%=      5-min Rain = 0
KPA1 140704Z 35010KT 02/00 A3005 RMK A01 T00240000  RH  085%=      5-min Rain = 0
KPA1 140705Z 35011KT 02/00 A3005 RMK A01 T002400-0  RH  084%=      5-min Rain = 0
KPA1 140706Z 35010KT 02/M00 A3005 RMK A01 T00241001  RH  084%=      5-min Rain = 0
KPA1 140707Z 35009KT 02/M00 A3005 RMK A01 T00241001  RH  084%=      5-min Rain = 0
KPA1 140708Z 35010KT 02/M00 A3005 RMK A01 T00241001  RH  084%=      5-min Rain = 0
KPA1 140709Z 34009KT 02/M00 A3005 RMK A01 T00241001  RH  084%=      5-min Rain = 0
KPA1 140710Z 35008KT 02/M00 A3005 RMK A01 T00241001  RH  083%=      5-min Rain = 0
KPA1 140711Z 34009KT 02/M00 A3006 RMK A01 T00241001  RH  084%=      5-min Rain = 0
KPA1 140712Z 35009KT 02/M00 A3006 RMK A01 T00241001  RH  084%=      5-min Rain = 0
KPA1 140713Z 35009KT 02/M00 A3006 RMK A01 T00241001  RH  084%=      5-min Rain = 0
KPA1 140714Z 35009KT 02/M00 A3005 RMK A01 T00241001  RH  083%=      5-min Rain = 0
KPA1 140715Z 34009KT 02/M00 A3005 RMK A01 T00241001  RH  083%=      5-min Rain = 0
KPA1 140716Z 34009KT 02/M00 A3005 RMK A01 T00241001  RH  084%=      5-min Rain = 0
KPA1 140717Z 35009KT 02/00 A3005 RMK A01 T002400-0  RH  084%=      5-min Rain = 0
KPA1 140718Z 34010KT 02/00 A3005 RMK A01 T002400-0  RH  084%=      5-min Rain = 0
KPA1 140719Z 34009KT 02/M00 A3005 RMK A01 T00231001  RH  084%=      5-min Rain = 0
KPA1 140720Z 34009KT 02/00 A3005 RMK A01 T00240000  RH  085%=      5-min Rain = 0
KPA1 140721Z 35010KT 02/00 A3005 RMK A01 T00230000  RH  085%=      5-min Rain = 0
KPA1 140722Z 34009KT 02/00 A3005 RMK A01 T00230000  RH  085%=      5-min Rain = 0
KPA1 140723Z 35009KT 02/00 A3005 RMK A01 T00230001  RH  085%=      5-min Rain = 0
KPA1 140724Z 34009KT 02/00 A3005 RMK A01 T00230001  RH  085%=      5-min Rain = 0
KPA1 140725Z 34010KT 02/00 A3005 RMK A01 T00230001  RH  085%=      5-min Rain = 0
KPA1 140726Z 34011KT 02/00 A3005 RMK A01 T00230000  RH  085%=      5-min Rain = 0
KPA1 140727Z 34011KT 02/00 A3005 RMK A01 T002300-0  RH  085%=      5-min Rain = 0
KPA1 140728Z 35010KT 02/M00 A3005 RMK A01 T00231001  RH  084%=      5-min Rain = 0
KPA1 140729Z 35010KT 02/00 A3005 RMK A01 T002300-0  RH  085%=      5-min Rain = 0
KPA1 140730Z 34011KT 02/00 A3005 RMK A01 T002300-0  RH  085%=      5-min Rain = 0
KPA1 140731Z 34010KT 02/00 A3005 RMK A01 T002300-0  RH  085%=      5-min Rain = 0
KPA1 140732Z 34009KT 02/00 A3005 RMK A01 T00230000  RH  085%=      5-min Rain = 0
KPA1 140733Z 35009KT 02/00 A3005 RMK A01 T00230000  RH  085%=      5-min Rain = 0
KPA1 140734Z 35010KT 02/00 A3005 RMK A01 T00230000  RH  085%=      5-min Rain = 0
KPA1 140735Z 36008KT 02/00 A3005 RMK A01 T002200-0  RH  085%=      5-min Rain = 0
KPA1 140736Z 36009KT 02/00 A3005 RMK A01 T00230000  RH  085%=      5-min Rain = 0
KPA1 140737Z 35009KT 02/00 A3005 RMK A01 T00220001  RH  086%=      5-min Rain = 0
KPA1 140738Z 35008KT 02/00 A3005 RMK A01 T00220001  RH  086%=      5-min Rain = 0
KPA1 140739Z 35009KT 02/00 A3005 RMK A01 T00230001  RH  086%=      5-min Rain = 0
KPA1 140740Z 35009KT 02/00 A3005 RMK A01 T00220001  RH  086%=      5-min Rain = 0
KPA1 140741Z 36009KT 02/00 A3005 RMK A01 T00230001  RH  086%=      5-min Rain = 0
KPA1 140742Z 36008KT 02/00 A3005 RMK A01 T00220001  RH  086%=      5-min Rain = 0
KPA1 140743Z 36008KT 02/00 A3005 RMK A01 T00220001  RH  086%=      5-min Rain = 0
KPA1 140744Z 00008KT 02/00 A3005 RMK A01 T00220001  RH  086%=      5-min Rain = 0
KPA1 140745Z 00010KT 02/00 A3005 RMK A01 T00220001  RH  086%=      5-min Rain = 0
KPA1 140746Z 36009KT 02/00 A3005 RMK A01 T00210001  RH  086%=      5-min Rain = 0
KPA1 140747Z 00008KT 02/00 A3005 RMK A01 T00220001  RH  086%=      5-min Rain = 0
KPA1 140748Z 00009KT 02/00 A3005 RMK A01 T00220000  RH  086%=      5-min Rain = 0
KPA1 140749Z 00009KT 02/00 A3006 RMK A01 T00220000  RH  086%=      5-min Rain = 0
KPA1 140750Z 36007KT 02/00 A3006 RMK A01 T00220000  RH  086%=      5-min Rain = 0
KPA1 140751Z 36007KT 02/00 A3006 RMK A01 T00210001  RH  086%=      5-min Rain = 0
KPA1 140752Z 36008KT 02/00 A3006 RMK A01 T00210001  RH  086%=      5-min Rain = 0
KPA1 140753Z 00008KT 02/00 A3006 RMK A01 T00210001  RH  087%=      5-min Rain = 0
KPA1 140754Z 00007KT 02/00 A3006 RMK A01 T00210001  RH  086%=      5-min Rain = 0
KPA1 140755Z 36008KT 02/00 A3006 RMK A01 T00220002  RH  087%=      5-min Rain = 0
KPA1 140756Z 01008KT 02/00 A3006 RMK A01 T00220002  RH  087%=      5-min Rain = 0
KPA1 140757Z 01009KT 02/00 A3006 RMK A01 T00210002  RH  087%=      5-min Rain = 0
KPA1 140758Z 36008KT 02/00 A3006 RMK A01 T00220002  RH  087%=      5-min Rain = 0
KPA1 140759Z 00007KT 02/00 A3006 RMK A01 T00220003  RH  087%=      5-min Rain = 0
KPA1 140800Z 36008KT 02/00 A3005 RMK A01 T00210003  RH  088%=      5-min Rain = 0
KPA1 140801Z 01007KT 02/00 A3005 RMK A01 T00210003  RH  088%=      5-min Rain = 0
KPA1 140802Z 00006KT 02/00 A3005 RMK A01 T00210003  RH  088%=      5-min Rain = 0
KPA1 140803Z 00007KT 02/00 A3005 RMK A01 T00210004  RH  088%=      5-min Rain = 0
KPA1 140804Z 36008KT 02/00 A3005 RMK A01 T00210004  RH  088%=      5-min Rain = 0
KPA1 140805Z 00007KT 02/00 A3005 RMK A01 T00210004  RH  088%=      5-min Rain = 0
KPA1 140806Z 01007KT 02/00 A3005 RMK A01 T00210004  RH  089%=      5-min Rain = 0
KPA1 140807Z 01009KT 02/00 A3005 RMK A01 T00210004  RH  089%=      5-min Rain = 0
KPA1 140808Z 00008KT 02/00 A3005 RMK A01 T00210004  RH  089%=      5-min Rain = 0
KPA1 140809Z 00008KT 02/00 A3005 RMK A01 T00210003  RH  088%=      5-min Rain = 0
KPA1 140810Z 00008KT 02/00 A3005 RMK A01 T00210003  RH  088%=      5-min Rain = 0
KPA1 140811Z 00008KT 02/00 A3005 RMK A01 T00210004  RH  089%=      5-min Rain = 0
KPA1 140812Z 01009KT 02/00 A3005 RMK A01 T00200003  RH  089%=      5-min Rain = 0
KPA1 140813Z 00010KT 02/00 A3004 RMK A01 T00210004  RH  088%=      5-min Rain = 0
KPA1 140814Z 00010KT 02/00 A3004 RMK A01 T00210004  RH  089%=      5-min Rain = 0
KPA1 140815Z 01009KT 02/00 A3004 RMK A01 T00210004  RH  089%=      5-min Rain = 0
KPA1 140816Z 00008KT 02/00 A3004 RMK A01 T00200004  RH  089%=      5-min Rain = 0
KPA1 140817Z 00009KT 02/01 A3004 RMK A01 T00210005  RH  089%=      5-min Rain = 0
KPA1 140818Z 00008KT 02/00 A3005 RMK A01 T00210004  RH  089%=      5-min Rain = 0
KPA1 140819Z 36007KT 02/01 A3005 RMK A01 T00210005  RH  089%=      5-min Rain = 0
KPA1 140820Z 36009KT 02/01 A3005 RMK A01 T00210005  RH  089%=      5-min Rain = 0
KPA1 140821Z 36008KT 02/01 A3005 RMK A01 T00200005  RH  089%=      5-min Rain = 0
KPA1 140822Z 36009KT 02/01 A3005 RMK A01 T00210005  RH  089%=      5-min Rain = 0
KPA1 140823Z 00008KT 02/01 A3005 RMK A01 T00210005  RH  089%=      5-min Rain = 0
KPA1 140824Z 36008KT 02/01 A3005 RMK A01 T00210005  RH  089%=      5-min Rain = 0
KPA1 140825Z 36008KT 02/00 A3005 RMK A01 T00200004  RH  089%=      5-min Rain = 0
KPA1 140826Z 36009KT 02/00 A3005 RMK A01 T00210004  RH  089%=      5-min Rain = 0
KPA1 140827Z 36008KT 02/00 A3005 RMK A01 T00210004  RH  089%=      5-min Rain = 0
KPA1 140828Z 00008KT 02/00 A3005 RMK A01 T00210004  RH  089%=      5-min Rain = 0
KPA1 140829Z 00008KT 02/00 A3005 RMK A01 T00210004  RH  089%=      5-min Rain = 0
KPA1 140830Z 36009KT 02/00 A3005 RMK A01 T00210003  RH  088%=      5-min Rain = 0
KPA1 140831Z 36008KT 02/00 A3005 RMK A01 T00210003  RH  088%=      5-min Rain = 0
KPA1 140832Z 00008KT 02/00 A3005 RMK A01 T00210003  RH  088%=      5-min Rain = 0
KPA1 140833Z 00008KT 02/00 A3005 RMK A01 T00210003  RH  088%=      5-min Rain = 0
KPA1 140834Z 36007KT 02/00 A3005 RMK A01 T00210004  RH  089%=      5-min Rain = 0
KPA1 140835Z 35007KT 02/00 A3005 RMK A01 T00210004  RH  089%=      5-min Rain = 0
KPA1 140836Z 35007KT 02/00 A3005 RMK A01 T00210004  RH  089%=      5-min Rain = 0
KPA1 140837Z 35008KT 02/01 A3005 RMK A01 T00210005  RH  089%=      5-min Rain = 0
KPA1 140838Z 36007KT 02/00 A3005 RMK A01 T00210004  RH  089%=      5-min Rain = 0
KPA1 140839Z 35007KT 02/01 A3005 RMK A01 T00210005  RH  089%=      5-min Rain = 0
KPA1 140840Z 35008KT 02/01 A3005 RMK A01 T00210005  RH  089%=      5-min Rain = 0
KPA1 140841Z 35008KT 02/01 A3004 RMK A01 T00210005  RH  089%=      5-min Rain = 0
KPA1 140842Z 35008KT 02/01 A3004 RMK A01 T00210005  RH  089%=      5-min Rain = 0
KPA1 140843Z 35008KT 02/00 A3004 RMK A01 T00210004  RH  089%=      5-min Rain = 0
KPA1 140844Z 35010KT 02/00 A3004 RMK A01 T00200004  RH  089%=      5-min Rain = 0
KPA1 140845Z 35009KT 02/00 A3004 RMK A01 T00200003  RH  089%=      5-min Rain = 0
KPA1 140846Z 35009KT 02/00 A3004 RMK A01 T00200003  RH  089%=      5-min Rain = 0
KPA1 140847Z 35010KT 02/00 A3004 RMK A01 T00200003  RH  089%=      5-min Rain = 0
KPA1 140848Z 36010KT 02/00 A3004 RMK A01 T00200003  RH  089%=      5-min Rain = 0
KPA1 140849Z 35009KT 02/00 A3004 RMK A01 T00200003  RH  089%=      5-min Rain = 0
KPA1 140850Z 00008KT 02/00 A3004 RMK A01 T00200003  RH  089%=      5-min Rain = 0
KPA1 140851Z 36008KT 02/00 A3004 RMK A01 T00200003  RH  089%=      5-min Rain = 0
KPA1 140852Z 36008KT 02/00 A3004 RMK A01 T00200003  RH  089%=      5-min Rain = 0
KPA1 140853Z 00009KT 02/00 A3004 RMK A01 T00200003  RH  088%=      5-min Rain = 0
KPA1 140854Z 36009KT 02/00 A3004 RMK A01 T00200003  RH  088%=      5-min Rain = 0
KPA1 140855Z 00008KT 02/00 A3004 RMK A01 T00200002  RH  088%=      5-min Rain = 0
KPA1 140856Z 36008KT 02/00 A3004 RMK A01 T00200002  RH  088%=      5-min Rain = 0
KPA1 140857Z 00008KT 02/00 A3004 RMK A01 T00200002  RH  088%=      5-min Rain = 0
KPA1 140858Z 36009KT 02/00 A3004 RMK A01 T00200002  RH  088%=      5-min Rain = 0
KPA1 140859Z 00010KT 02/00 A3004 RMK A01 T00200002  RH  088%=      5-min Rain = 0
KPA1 140900Z 36010KT 02/00 A3004 RMK A01 T00200002  RH  088%=      5-min Rain = 0
KPA1 140901Z 00009KT 02/00 A3004 RMK A01 T00200001  RH  087%=      5-min Rain = 0
KPA1 140902Z 00009KT 02/00 A3004 RMK A01 T00200000  RH  087%=      5-min Rain = 0
KPA1 140903Z 01009KT 02/00 A3004 RMK A01 T00200001  RH  087%=      5-min Rain = 0
KPA1 140904Z 36009KT 02/00 A3004 RMK A01 T00200000  RH  087%=      5-min Rain = 0
KPA1 140905Z 01010KT 02/00 A3004 RMK A01 T00200000  RH  087%=      5-min Rain = 0
KPA1 140906Z 00010KT 02/00 A3004 RMK A01 T00200000  RH  087%=      5-min Rain = 0
KPA1 140907Z 00011KT 02/00 A3004 RMK A01 T002000-0  RH  086%=      5-min Rain = 0
KPA1 140908Z 36009KT 02/00 A3004 RMK A01 T002000-0  RH  086%=      5-min Rain = 0
KPA1 140909Z 00009KT 02/M00 A3004 RMK A01 T00201001  RH  086%=      5-min Rain = 0
KPA1 140910Z 36007KT 02/M00 A3004 RMK A01 T00201001  RH  086%=      5-min Rain = 0
KPA1 140911Z 00010KT 02/00 A3004 RMK A01 T002000-0  RH  086%=      5-min Rain = 0
KPA1 140912Z 00010KT 02/M00 A3004 RMK A01 T00201001  RH  086%=      5-min Rain = 0
KPA1 140913Z 36007KT 02/M00 A3004 RMK A01 T00201002  RH  086%=      5-min Rain = 0
KPA1 140914Z 35009KT 02/M00 A3004 RMK A01 T00201002  RH  086%=      5-min Rain = 0
KPA1 140915Z 36009KT 02/M00 A3004 RMK A01 T00201002  RH  086%=      5-min Rain = 0
KPA1 140916Z 36009KT 02/M00 A3004 RMK A01 T00201003  RH  085%=      5-min Rain = 0
KPA1 140917Z 35007KT 02/M00 A3004 RMK A01 T00201003  RH  085%=      5-min Rain = 0
KPA1 140918Z 35008KT 02/M00 A3005 RMK A01 T00201002  RH  085%=      5-min Rain = 0
KPA1 140919Z 35006KT 02/M00 A3005 RMK A01 T00201003  RH  085%=      5-min Rain = 0
KPA1 140920Z 35008KT 02/M00 A3005 RMK A01 T00201003  RH  085%=      5-min Rain = 0
KPA1 140921Z 36008KT 02/M00 A3005 RMK A01 T00201003  RH  085%=      5-min Rain = 0
KPA1 140922Z 36007KT 02/M00 A3005 RMK A01 T00201004  RH  085%=      5-min Rain = 0
KPA1 140923Z 35007KT 02/M00 A3005 RMK A01 T00201004  RH  085%=      5-min Rain = 0
KPA1 140924Z 36007KT 02/M00 A3005 RMK A01 T00201004  RH  084%=      5-min Rain = 0
KPA1 140925Z 36007KT 02/M00 A3005 RMK A01 T00201004  RH  085%=      5-min Rain = 0
KPA1 140926Z 36006KT 02/M00 A3005 RMK A01 T00201004  RH  085%=      5-min Rain = 0
KPA1 140927Z 35007KT 02/M00 A3004 RMK A01 T00201003  RH  085%=      5-min Rain = 0
KPA1 140928Z 35007KT 02/M00 A3004 RMK A01 T00201003  RH  085%=      5-min Rain = 0
KPA1 140929Z 35008KT 02/M00 A3004 RMK A01 T00201003  RH  085%=      5-min Rain = 0
KPA1 140930Z 35008KT 02/M00 A3004 RMK A01 T00201004  RH  084%=      5-min Rain = 0
KPA1 140931Z 35008KT 02/M00 A3004 RMK A01 T00201004  RH  084%=      5-min Rain = 0
KPA1 140932Z 35008KT 02/M00 A3004 RMK A01 T00201004  RH  084%=      5-min Rain = 0
KPA1 140933Z 35007KT 02/M00 A3004 RMK A01 T00201004  RH  084%=      5-min Rain = 0
KPA1 140934Z 35005KT 02/M00 A3004 RMK A01 T00191004  RH  085%=      5-min Rain = 0
KPA1 140935Z 35007KT 02/M00 A3004 RMK A01 T00201003  RH  085%=      5-min Rain = 0
KPA1 140936Z 36007KT 02/M00 A3004 RMK A01 T00201004  RH  085%=      5-min Rain = 0
KPA1 140937Z 36008KT 02/M00 A3004 RMK A01 T00201004  RH  084%=      5-min Rain = 0
KPA1 140938Z 35008KT 02/M00 A3004 RMK A01 T00201004  RH  084%=      5-min Rain = 0
KPA1 140939Z 35007KT 02/M01 A3004 RMK A01 T00201005  RH  084%=      5-min Rain = 0
KPA1 140940Z 36007KT 02/M01 A3004 RMK A01 T00201005  RH  084%=      5-min Rain = 0
KPA1 140941Z 36007KT 02/M01 A3004 RMK A01 T00201005  RH  084%=      5-min Rain = 0
KPA1 140942Z 36007KT 02/M00 A3004 RMK A01 T00201004  RH  084%=      5-min Rain = 0
KPA1 140943Z 36007KT 02/M00 A3004 RMK A01 T00201004  RH  084%=      5-min Rain = 0
KPA1 140944Z 36008KT 02/M00 A3003 RMK A01 T00201004  RH  085%=      5-min Rain = 0
KPA1 140945Z 36008KT 02/M00 A3003 RMK A01 T00201004  RH  085%=      5-min Rain = 0
KPA1 140946Z 00009KT 02/M00 A3003 RMK A01 T00201004  RH  085%=      5-min Rain = 0
KPA1 140947Z 00008KT 02/M00 A3003 RMK A01 T00201004  RH  084%=      5-min Rain = 0
KPA1 140948Z 35009KT 02/M00 A3003 RMK A01 T00201004  RH  084%=      5-min Rain = 0
KPA1 140949Z 00009KT 02/M00 A3003 RMK A01 T00201004  RH  084%=      5-min Rain = 0
KPA1 140950Z 00009KT 02/M00 A3003 RMK A01 T00201004  RH  084%=      5-min Rain = 0
KPA1 140951Z 00008KT 02/M01 A3003 RMK A01 T00201005  RH  084%=      5-min Rain = 0
KPA1 140952Z 00008KT 02/M00 A3003 RMK A01 T00201004  RH  084%=      5-min Rain = 0
KPA1 140953Z 36009KT 02/M00 A3003 RMK A01 T00191004  RH  084%=      5-min Rain = 0
KPA1 140954Z 00009KT 02/M00 A3003 RMK A01 T00191004  RH  084%=      5-min Rain = 0
KPA1 140955Z 00008KT 02/M00 A3003 RMK A01 T00191004  RH  084%=      5-min Rain = 0
KPA1 140956Z 36009KT 02/M00 A3003 RMK A01 T00191004  RH  084%=      5-min Rain = 0
KPA1 140957Z 00008KT 02/M01 A3003 RMK A01 T00191005  RH  084%=      5-min Rain = 0
KPA1 140958Z 00009KT 02/M01 A3003 RMK A01 T00191005  RH  084%=      5-min Rain = 0
KPA1 140959Z 00008KT 02/M01 A3003 RMK A01 T00191005  RH  084%=      5-min Rain = 0
KPA1 141000Z 36008KT 02/M01 A3003 RMK A01 T00191005  RH  084%=      5-min Rain = 0
KPA1 141001Z 36009KT 02/M01 A3003 RMK A01 T00191005  RH  084%=      5-min Rain = 0
KPA1 141002Z 00010KT 02/M01 A3004 RMK A01 T00191005  RH  084%=      5-min Rain = 0
KPA1 141003Z 01009KT 02/M01 A3004 RMK A01 T00191005  RH  084%=      5-min Rain = 0
KPA1 141004Z 00009KT 02/M01 A3004 RMK A01 T00191005  RH  084%=      5-min Rain = 0
KPA1 141005Z 36011KT 02/M00 A3004 RMK A01 T00191004  RH  085%=      5-min Rain = 0
KPA1 141006Z 36011KT 02/M00 A3004 RMK A01 T00181004  RH  085%=      5-min Rain = 0
KPA1 141007Z 36011KT 02/M00 A3004 RMK A01 T00181004  RH  085%=      5-min Rain = 0
KPA1 141008Z 36010KT 02/M00 A3004 RMK A01 T00171004  RH  086%=      5-min Rain = 0
KPA1 141009Z 36012KT 02/M00 A3004 RMK A01 T00171004  RH  086%=      5-min Rain = 0
KPA1 141010Z 36011KT 02/M01 A3004 RMK A01 T00171005  RH  085%=      5-min Rain = 0
KPA1 141011Z 36013KT 02/M01 A3004 RMK A01 T00171005  RH  086%=      5-min Rain = 0
KPA1 141012Z 35012KT 02/M01 A3004 RMK A01 T00161005  RH  086%=      5-min Rain = 0
KPA1 141013Z 36013KT 02/M00 A3004 RMK A01 T00161004  RH  087%=      5-min Rain = 0
KPA1 141014Z 35012KT 02/M00 A3004 RMK A01 T00151004  RH  087%=      5-min Rain = 0
KPA1 141015Z 36010KT 02/M00 A3004 RMK A01 T00151004  RH  088%=      5-min Rain = 0
KPA1 141016Z 35009KT 01/M00 A3004 RMK A01 T00141003  RH  088%=      5-min Rain = 0
KPA1 141017Z 35010KT 01/M00 A3004 RMK A01 T00141002  RH  089%=      5-min Rain = 0
KPA1 141018Z 35011KT 01/M00 A3004 RMK A01 T00141003  RH  089%=      5-min Rain = 0
KPA1 141019Z 35012KT 01/M00 A3004 RMK A01 T00141003  RH  089%=      5-min Rain = 0
KPA1 141020Z 35012KT 01/M00 A3004 RMK A01 T00131003  RH  089%=      5-min Rain = 0
KPA1 141021Z 35013KT 01/M00 A3004 RMK A01 T00131003  RH  089%=      5-min Rain = 0
KPA1 141022Z 36011KT 01/M00 A3004 RMK A01 T00131003  RH  089%=      5-min Rain = 0
KPA1 141023Z 00011KT 01/M00 A3005 RMK A01 T00131004  RH  089%=      5-min Rain = 0
KPA1 141024Z 36011KT 01/M00 A3005 RMK A01 T00131003  RH  089%=      5-min Rain = 0
KPA1 141025Z 00010KT 01/M00 A3005 RMK A01 T00131003  RH  089%=      5-min Rain = 0
KPA1 141026Z 00011KT 01/M00 A3005 RMK A01 T00131003  RH  089%=      5-min Rain = 0
KPA1 141027Z 00010KT 01/M00 A3004 RMK A01 T00131003  RH  089%=      5-min Rain = 0
KPA1 141028Z 36011KT 01/M00 A3004 RMK A01 T00131003  RH  089%=      5-min Rain = 0
KPA1 141029Z 35010KT 01/M00 A3004 RMK A01 T00131003  RH  090%=      5-min Rain = 0
KPA1 141030Z 00009KT 01/M00 A3004 RMK A01 T00131002  RH  090%=      5-min Rain = 0
KPA1 141031Z 00010KT 01/M00 A3004 RMK A01 T00131002  RH  090%=      5-min Rain = 0
KPA1 141032Z 00008KT 01/M00 A3004 RMK A01 T00131001  RH  090%=      5-min Rain = 0
KPA1 141033Z 00010KT 01/M00 A3004 RMK A01 T00121001  RH  091%=      5-min Rain = 0
KPA1 141034Z 00009KT 01/M00 A3004 RMK A01 T00121002  RH  091%=      5-min Rain = 0
KPA1 141035Z 00008KT 01/M00 A3004 RMK A01 T00121002  RH  091%=      5-min Rain = 0
KPA1 141036Z 36011KT 01/M00 A3004 RMK A01 T00121001  RH  091%=      5-min Rain = 0
KPA1 141037Z 36011KT 01/M00 A3004 RMK A01 T00111002  RH  091%=      5-min Rain = 0
KPA1 141038Z 36009KT 01/M00 A3004 RMK A01 T00111002  RH  091%=      5-min Rain = 0
KPA1 141039Z 36009KT 01/M00 A3004 RMK A01 T00111002  RH  091%=      5-min Rain = 0
KPA1 141040Z 35010KT 01/M00 A3004 RMK A01 T00101002  RH  092%=      5-min Rain = 0
KPA1 141041Z 36011KT 01/M00 A3004 RMK A01 T00101002  RH  092%=      5-min Rain = 0
KPA1 141042Z 00011KT 01/M00 A3004 RMK A01 T00101001  RH  092%=      5-min Rain = 0
KPA1 141043Z 00009KT 01/M00 A3004 RMK A01 T00101001  RH  092%=      5-min Rain = 0
KPA1 141044Z 00009KT 01/M00 A3004 RMK A01 T00101002  RH  092%=      5-min Rain = 0
KPA1 141045Z 01012KT 01/M00 A3004 RMK A01 T00101001  RH  092%=      5-min Rain = 0.01
KPA1 141046Z 00012KT 01/M00 A3004 RMK A01 T00091001  RH  093%=      5-min Rain = 0
KPA1 141047Z 01010KT 01/M00 A3004 RMK A01 T00101001  RH  093%=      5-min Rain = 0
KPA1 141048Z 01010KT 01/M00 A3004 RMK A01 T00101001  RH  093%=      5-min Rain = 0
KPA1 141049Z 01011KT 01/M00 A3004 RMK A01 T00101001  RH  093%=      5-min Rain = 0
KPA1 141050Z 01009KT 01/00 A3004 RMK A01 T000900-0  RH  093%=      5-min Rain = 0
KPA1 141051Z 01010KT 01/00 A3004 RMK A01 T00090000  RH  094%=      5-min Rain = 0
KPA1 141052Z 01010KT 01/00 A3004 RMK A01 T00090000  RH  094%=      5-min Rain = 0
KPA1 141053Z 01010KT 01/00 A3004 RMK A01 T00090001  RH  094%=      5-min Rain = 0
KPA1 141054Z 01009KT 01/00 A3004 RMK A01 T00090000  RH  094%=      5-min Rain = 0
KPA1 141055Z 01010KT 01/00 A3004 RMK A01 T00090001  RH  094%=      5-min Rain = 0
KPA1 141056Z 01010KT 01/00 A3004 RMK A01 T00090001  RH  095%=      5-min Rain = 0
KPA1 141057Z 01009KT 01/00 A3004 RMK A01 T00090001  RH  095%=      5-min Rain = 0
KPA1 141058Z 01008KT 01/00 A3004 RMK A01 T00090001  RH  095%=      5-min Rain = 0
KPA1 141059Z 00007KT 01/00 A3004 RMK A01 T00080001  RH  095%=      5-min Rain = 0
KPA1 141100Z 01008KT 01/00 A3004 RMK A01 T00080001  RH  095%=      5-min Rain = 0
KPA1 141101Z 00008KT 01/00 A3004 RMK A01 T00080001  RH  095%=      5-min Rain = 0
KPA1 141102Z 00008KT 01/00 A3004 RMK A01 T00080001  RH  096%=      5-min Rain = 0
KPA1 141103Z 01009KT 01/00 A3004 RMK A01 T00080002  RH  096%=      5-min Rain = 0
KPA1 141104Z 00010KT 01/00 A3004 RMK A01 T00080002  RH  096%=      5-min Rain = 0
KPA1 141105Z 01009KT 01/00 A3004 RMK A01 T00080002  RH  096%=      5-min Rain = 0
KPA1 141106Z 01009KT 01/00 A3004 RMK A01 T00080002  RH  096%=      5-min Rain = 0
KPA1 141107Z 00009KT 01/00 A3004 RMK A01 T00080002  RH  096%=      5-min Rain = 0
KPA1 141108Z 00007KT 01/00 A3004 RMK A01 T00080002  RH  096%=      5-min Rain = 0
KPA1 141109Z 00007KT 01/00 A3004 RMK A01 T00080002  RH  096%=      5-min Rain = 0
KPA1 141110Z 00008KT 01/00 A3004 RMK A01 T00080003  RH  096%=      5-min Rain = 0
KPA1 141111Z 36009KT 01/00 A3004 RMK A01 T00080003  RH  096%=      5-min Rain = 0
KPA1 141112Z 36010KT 01/00 A3004 RMK A01 T00080003  RH  096%=      5-min Rain = 0
KPA1 141113Z 35008KT 01/00 A3004 RMK A01 T00080003  RH  096%=      5-min Rain = 0
KPA1 141114Z 36009KT 01/00 A3004 RMK A01 T00080003  RH  096%=      5-min Rain = 0
KPA1 141115Z 36010KT 01/00 A3004 RMK A01 T00080003  RH  097%=      5-min Rain = 0
KPA1 141116Z 36009KT 01/00 A3004 RMK A01 T00080003  RH  097%=      5-min Rain = 0
KPA1 141117Z 35009KT 01/00 A3004 RMK A01 T00080003  RH  097%=      5-min Rain = 0
KPA1 141118Z 35009KT 01/00 A3004 RMK A01 T00080003  RH  097%=      5-min Rain = 0
KPA1 141119Z 36009KT 01/00 A3005 RMK A01 T00080003  RH  097%=      5-min Rain = 0
KPA1 141120Z 35008KT 01/00 A3005 RMK A01 T00080003  RH  097%=      5-min Rain = 0
KPA1 141121Z 36010KT 01/00 A3005 RMK A01 T00080003  RH  097%=      5-min Rain = 0
KPA1 141122Z 36010KT 01/00 A3004 RMK A01 T00080003  RH  097%=      5-min Rain = 0
KPA1 141123Z 36010KT 01/00 A3004 RMK A01 T00080003  RH  097%=      5-min Rain = 0
KPA1 141124Z 35011KT 01/00 A3004 RMK A01 T00080003  RH  097%=      5-min Rain = 0
KPA1 141125Z 36012KT 01/00 A3005 RMK A01 T00070003  RH  097%=      5-min Rain = 0
KPA1 141126Z 36011KT 01/00 A3005 RMK A01 T00080003  RH  097%=      5-min Rain = 0
KPA1 141127Z 35010KT 01/00 A3005 RMK A01 T00070002  RH  097%=      5-min Rain = 0
KPA1 141128Z 36011KT 01/00 A3005 RMK A01 T00070002  RH  097%=      5-min Rain = 0
KPA1 141129Z 36011KT 01/00 A3005 RMK A01 T00070002  RH  097%=      5-min Rain = 0
KPA1 141130Z 35010KT 01/00 A3005 RMK A01 T00060002  RH  097%=      5-min Rain = 0
KPA1 141131Z 35010KT 01/00 A3005 RMK A01 T00060002  RH  097%=      5-min Rain = 0
KPA1 141132Z 36010KT 01/00 A3005 RMK A01 T00060001  RH  097%=      5-min Rain = 0
KPA1 141133Z 36009KT 01/00 A3005 RMK A01 T00060001  RH  097%=      5-min Rain = 0
KPA1 141134Z 35009KT 01/00 A3005 RMK A01 T00060001  RH  097%=      5-min Rain = 0
KPA1 141135Z 35011KT 01/00 A3005 RMK A01 T00060001  RH  097%=      5-min Rain = 0
KPA1 141136Z 35010KT 01/00 A3005 RMK A01 T00050001  RH  097%=      5-min Rain = 0
KPA1 141137Z 35011KT 01/00 A3004 RMK A01 T00060001  RH  097%=      5-min Rain = 0
KPA1 141138Z 35011KT 01/00 A3004 RMK A01 T00050001  RH  097%=      5-min Rain = 0
KPA1 141139Z 35012KT 01/00 A3004 RMK A01 T00050001  RH  097%=      5-min Rain = 0
KPA1 141140Z 35012KT 01/00 A3004 RMK A01 T00050001  RH  097%=      5-min Rain = 0
KPA1 141141Z 35011KT 01/00 A3004 RMK A01 T00050001  RH  097%=      5-min Rain = 0
KPA1 141142Z 35012KT 01/00 A3005 RMK A01 T00050001  RH  097%=      5-min Rain = 0
KPA1 141143Z 35011KT 01/00 A3005 RMK A01 T00050001  RH  097%=      5-min Rain = 0
KPA1 141144Z 35011KT 01/00 A3005 RMK A01 T00050001  RH  097%=      5-min Rain = 0
KPA1 141145Z 35012KT 01/00 A3005 RMK A01 T00050001  RH  097%=      5-min Rain = 0.01
KPA1 141146Z 35009KT 01/00 A3005 RMK A01 T00050001  RH  097%=      5-min Rain = 0
KPA1 141147Z 34010KT 01/00 A3005 RMK A01 T00050001  RH  097%=      5-min Rain = 0
KPA1 141148Z 35010KT 01/00 A3005 RMK A01 T00050001  RH  097%=      5-min Rain = 0
KPA1 141149Z 35011KT 01/00 A3005 RMK A01 T00050001  RH  097%=      5-min Rain = 0
KPA1 141150Z 35010KT 01/00 A3005 RMK A01 T00050001  RH  097%=      5-min Rain = 0
KPA1 141151Z 35010KT 01/00 A3005 RMK A01 T00050001  RH  097%=      5-min Rain = 0
KPA1 141152Z 35011KT 01/00 A3005 RMK A01 T00050001  RH  097%=      5-min Rain = 0
KPA1 141153Z 35009KT 01/00 A3005 RMK A01 T00050001  RH  097%=      5-min Rain = 0
KPA1 141154Z 35009KT 01/00 A3005 RMK A01 T00050001  RH  097%=      5-min Rain = 0
KPA1 141155Z 35010KT 01/00 A3005 RMK A01 T00050001  RH  097%=      5-min Rain = 0
KPA1 141156Z 36011KT 01/00 A3005 RMK A01 T00050001  RH  097%=      5-min Rain = 0
KPA1 141157Z 35011KT 00/00 A3005 RMK A01 T00040000  RH  097%=      5-min Rain = 0
KPA1 141158Z 35010KT 00/00 A3005 RMK A01 T00040000  RH  097%=      5-min Rain = 0
KPA1 141159Z 35009KT 00/00 A3005 RMK A01 T00040001  RH  097%=      5-min Rain = 0
KPA1 141200Z 35008KT 00/00 A3005 RMK A01 T00040001  RH  098%=      5-min Rain = 0
KPA1 141201Z 35009KT 00/00 A3005 RMK A01 T00040001  RH  098%=      5-min Rain = 0
KPA1 141202Z 35011KT 00/00 A3005 RMK A01 T00040000  RH  098%=      5-min Rain = 0
KPA1 141203Z 35010KT 00/00 A3005 RMK A01 T00040001  RH  098%=      5-min Rain = 0
KPA1 141204Z 35009KT 00/00 A3005 RMK A01 T00040001  RH  098%=      5-min Rain = 0
KPA1 141205Z 36010KT 00/00 A3005 RMK A01 T00040000  RH  098%=      5-min Rain = 0
KPA1 141206Z 35010KT 00/00 A3005 RMK A01 T00040000  RH  098%=      5-min Rain = 0
KPA1 141207Z 36012KT 00/00 A3005 RMK A01 T00040000  RH  098%=      5-min Rain = 0
KPA1 141208Z 35010KT 00/00 A3005 RMK A01 T00040000  RH  098%=      5-min Rain = 0
KPA1 141209Z 35011KT 00/00 A3005 RMK A01 T00040000  RH  098%=      5-min Rain = 0
KPA1 141210Z 36010KT 00/00 A3005 RMK A01 T000300-0  RH  098%=      5-min Rain = 0
KPA1 141211Z 35010KT 00/00 A3005 RMK A01 T000300-0  RH  098%=      5-min Rain = 0
KPA1 141212Z 35011KT 00/M00 A3005 RMK A01 T00031001  RH  098%=      5-min Rain = 0
KPA1 141213Z 35010KT 00/M00 A3005 RMK A01 T00031001  RH  098%=      5-min Rain = 0
KPA1 141214Z 35009KT 00/00 A3005 RMK A01 T000300-0  RH  098%=      5-min Rain = 0
KPA1 141215Z 35012KT 00/M00 A3005 RMK A01 T00031001  RH  098%=      5-min Rain = 0
KPA1 141216Z 35011KT 00/M00 A3005 RMK A01 T00031001  RH  098%=      5-min Rain = 0
KPA1 141217Z 35010KT 00/00 A3005 RMK A01 T000300-0  RH  098%=      5-min Rain = 0
KPA1 141218Z 35011KT 00/00 A3005 RMK A01 T000300-0  RH  098%=      5-min Rain = 0
KPA1 141219Z 35011KT 00/M00 A3005 RMK A01 T00021001  RH  098%=      5-min Rain = 0
KPA1 141220Z 35012KT 00/M00 A3005 RMK A01 T00021001  RH  098%=      5-min Rain = 0
KPA1 141221Z 35012KT 00/M00 A3005 RMK A01 T00021001  RH  098%=      5-min Rain = 0
KPA1 141222Z 35011KT 00/M00 A3005 RMK A01 T00021001  RH  098%=      5-min Rain = 0
KPA1 141223Z 35011KT 00/M00 A3005 RMK A01 T00021001  RH  098%=      5-min Rain = 0
KPA1 141224Z 35011KT 00/M00 A3005 RMK A01 T00031001  RH  098%=      5-min Rain = 0
KPA1 141225Z 35011KT 00/M00 A3005 RMK A01 T00021001  RH  098%=      5-min Rain = 0
KPA1 141226Z 35012KT 00/M00 A3005 RMK A01 T00021001  RH  098%=      5-min Rain = 0
KPA1 141227Z 35011KT 00/M00 A3005 RMK A01 T00021001  RH  098%=      5-min Rain = 0
KPA1 141228Z 35008KT 00/M00 A3005 RMK A01 T00021001  RH  098%=      5-min Rain = 0
KPA1 141229Z 35009KT 00/M00 A3005 RMK A01 T00021001  RH  098%=      5-min Rain = 0
KPA1 141230Z 35010KT 00/M00 A3005 RMK A01 T00021001  RH  098%=      5-min Rain = 0
KPA1 141231Z 35010KT 00/M00 A3005 RMK A01 T00021001  RH  098%=      5-min Rain = 0
KPA1 141232Z 35010KT 00/M00 A3005 RMK A01 T00021001  RH  098%=      5-min Rain = 0
KPA1 141233Z 35008KT 00/M00 A3005 RMK A01 T00021001  RH  098%=      5-min Rain = 0
KPA1 141234Z 35009KT 00/M00 A3005 RMK A01 T00021001  RH  098%=      5-min Rain = 0
KPA1 141235Z 35011KT 00/M00 A3005 RMK A01 T00021001  RH  098%=      5-min Rain = 0
KPA1 141236Z 35011KT 00/M00 A3005 RMK A01 T00021001  RH  098%=      5-min Rain = 0
KPA1 141237Z 35011KT 00/00 A3005 RMK A01 T000200-0  RH  098%=      5-min Rain = 0
KPA1 141238Z 35010KT 00/00 A3005 RMK A01 T000200-0  RH  098%=      5-min Rain = 0
KPA1 141239Z 35009KT 00/00 A3005 RMK A01 T000200-0  RH  098%=      5-min Rain = 0
KPA1 141240Z 35011KT 00/00 A3005 RMK A01 T000200-0  RH  098%=      5-min Rain = 0
KPA1 141241Z 35011KT 00/00 A3005 RMK A01 T000300-0  RH  098%=      5-min Rain = 0
KPA1 141242Z 35011KT 00/00 A3005 RMK A01 T000200-0  RH  098%=      5-min Rain = 0
KPA1 141243Z 34012KT 00/00 A3005 RMK A01 T00030000  RH  098%=      5-min Rain = 0
KPA1 141244Z 35011KT 00/00 A3005 RMK A01 T00030000  RH  098%=      5-min Rain = 0
KPA1 141245Z 34010KT 00/00 A3005 RMK A01 T00030000  RH  098%=      5-min Rain = 0
KPA1 141246Z 34010KT 00/00 A3005 RMK A01 T00030000  RH  098%=      5-min Rain = 0
KPA1 141247Z 34010KT 00/00 A3005 RMK A01 T00030000  RH  098%=      5-min Rain = 0
KPA1 141248Z 34009KT 00/00 A3005 RMK A01 T00030000  RH  098%=      5-min Rain = 0
KPA1 141249Z 34010KT 00/00 A3005 RMK A01 T00030000  RH  098%=      5-min Rain = 0
KPA1 141250Z 34009KT 00/00 A3005 RMK A01 T00030000  RH  098%=      5-min Rain = 0
KPA1 141251Z 33009KT 00/00 A3005 RMK A01 T00030000  RH  098%=      5-min Rain = 0
KPA1 141252Z 35011KT 00/00 A3005 RMK A01 T00030001  RH  098%=      5-min Rain = 0
KPA1 141253Z 35011KT 00/00 A3005 RMK A01 T00030001  RH  098%=      5-min Rain = 0
KPA1 141254Z 35010KT 00/00 A3006 RMK A01 T00030001  RH  098%=      5-min Rain = 0
KPA1 141255Z 35011KT 00/00 A3006 RMK A01 T00030001  RH  098%=      5-min Rain = 0
KPA1 141256Z 35011KT 00/00 A3006 RMK A01 T00030001  RH  098%=      5-min Rain = 0
KPA1 141257Z 35011KT 00/00 A3006 RMK A01 T00030001  RH  098%=      5-min Rain = 0
KPA1 141258Z 35009KT 00/00 A3006 RMK A01 T00030001  RH  098%=      5-min Rain = 0
KPA1 141259Z 36010KT 00/00 A3005 RMK A01 T00040001  RH  098%=      5-min Rain = 0
KPA1 141300Z 36010KT 00/00 A3005 RMK A01 T00040001  RH  098%=      5-min Rain = 0
KPA1 141301Z 00012KT 00/00 A3005 RMK A01 T00040001  RH  098%=      5-min Rain = 0
KPA1 141302Z 36013KT 00/00 A3005 RMK A01 T00040001  RH  098%=      5-min Rain = 0
KPA1 141303Z 00013KT 00/00 A3005 RMK A01 T00040001  RH  098%=      5-min Rain = 0
KPA1 141304Z 00014KT 00/00 A3005 RMK A01 T00040001  RH  098%=      5-min Rain = 0
KPA1 141305Z 36013KT 00/00 A3005 RMK A01 T00040001  RH  098%=      5-min Rain = 0
KPA1 141306Z 36012KT 00/00 A3005 RMK A01 T00040001  RH  098%=      5-min Rain = 0
KPA1 141307Z 36013KT 00/00 A3005 RMK A01 T00040002  RH  098%=      5-min Rain = 0
KPA1 141308Z 36012KT 00/00 A3006 RMK A01 T00040002  RH  098%=      5-min Rain = 0
KPA1 141309Z 36011KT 00/00 A3006 RMK A01 T00040002  RH  098%=      5-min Rain = 0
KPA1 141310Z 36012KT 00/00 A3006 RMK A01 T00040001  RH  098%=      5-min Rain = 0
KPA1 141311Z 35013KT 00/00 A3006 RMK A01 T00040001  RH  098%=      5-min Rain = 0
KPA1 141312Z 36012KT 00/00 A3006 RMK A01 T00040001  RH  098%=      5-min Rain = 0
KPA1 141313Z 36011KT 00/00 A3006 RMK A01 T00040001  RH  098%=      5-min Rain = 0
KPA1 141314Z 36011KT 00/00 A3006 RMK A01 T00040001  RH  098%=      5-min Rain = 0
KPA1 141315Z 36012KT 00/00 A3006 RMK A01 T00040001  RH  098%=      5-min Rain = 0
KPA1 141316Z 36011KT 00/00 A3006 RMK A01 T00040001  RH  098%=      5-min Rain = 0
KPA1 141317Z 35011KT 00/00 A3006 RMK A01 T00040001  RH  098%=      5-min Rain = 0
KPA1 141318Z 36011KT 00/00 A3006 RMK A01 T00030001  RH  098%=      5-min Rain = 0
KPA1 141319Z 36011KT 00/00 A3006 RMK A01 T00030001  RH  098%=      5-min Rain = 0
KPA1 141320Z 36012KT 00/00 A3006 RMK A01 T00030001  RH  098%=      5-min Rain = 0
KPA1 141321Z 00011KT 00/00 A3006 RMK A01 T00030001  RH  098%=      5-min Rain = 0
KPA1 141322Z 00011KT 00/00 A3006 RMK A01 T00030001  RH  098%=      5-min Rain = 0
KPA1 141323Z 36011KT 00/00 A3006 RMK A01 T00030001  RH  098%=      5-min Rain = 0.01
KPA1 141324Z 36010KT 00/00 A3006 RMK A01 T00030001  RH  098%=      5-min Rain = 0
KPA1 141325Z 36012KT 00/00 A3007 RMK A01 T00030000  RH  098%=      5-min Rain = 0
KPA1 141326Z 35009KT 00/00 A3007 RMK A01 T00030001  RH  098%=      5-min Rain = 0
KPA1 141327Z 35009KT 00/00 A3007 RMK A01 T00030000  RH  098%=      5-min Rain = 0
KPA1 141328Z 36009KT 00/00 A3007 RMK A01 T00020000  RH  098%=      5-min Rain = 0
KPA1 141329Z 35010KT 00/00 A3007 RMK A01 T000200-0  RH  098%=      5-min Rain = 0
KPA1 141330Z 35012KT 00/00 A3007 RMK A01 T00020000  RH  098%=      5-min Rain = 0
KPA1 141331Z 35010KT 00/00 A3007 RMK A01 T000200-0  RH  098%=      5-min Rain = 0
KPA1 141332Z 35010KT 00/00 A3007 RMK A01 T000200-0  RH  098%=      5-min Rain = 0
KPA1 141333Z 35010KT 00/00 A3007 RMK A01 T000200-0  RH  098%=      5-min Rain = 0
KPA1 141334Z 35009KT 00/00 A3007 RMK A01 T00020000  RH  098%=      5-min Rain = 0
KPA1 141335Z 35009KT 00/00 A3007 RMK A01 T00020000  RH  098%=      5-min Rain = 0
KPA1 141336Z 35010KT 00/00 A3007 RMK A01 T00020000  RH  098%=      5-min Rain = 0
KPA1 141337Z 36010KT 00/00 A3007 RMK A01 T000200-0  RH  098%=      5-min Rain = 0
KPA1 141338Z 35011KT 00/00 A3007 RMK A01 T000200-0  RH  098%=      5-min Rain = 0
KPA1 141339Z 35012KT 00/00 A3007 RMK A01 T000200-0  RH  098%=      5-min Rain = 0
KPA1 141340Z 35010KT 00/00 A3007 RMK A01 T000200-0  RH  098%=      5-min Rain = 0
KPA1 141341Z 35013KT 00/M00 A3007 RMK A01 T00021001  RH  098%=      5-min Rain = 0
KPA1 141342Z 36011KT 00/00 A3007 RMK A01 T000200-0  RH  098%=      5-min Rain = 0
KPA1 141343Z 36011KT 00/00 A3007 RMK A01 T000200-0  RH  098%=      5-min Rain = 0
KPA1 141344Z 36012KT 00/00 A3007 RMK A01 T000200-0  RH  098%=      5-min Rain = 0
KPA1 141345Z 35011KT 00/00 A3007 RMK A01 T000200-0  RH  098%=      5-min Rain = 0
KPA1 141346Z 36009KT 00/M00 A3007 RMK A01 T00021001  RH  098%=      5-min Rain = 0
KPA1 141347Z 35010KT 00/00 A3007 RMK A01 T000200-0  RH  098%=      5-min Rain = 0
KPA1 141348Z 35011KT 00/00 A3007 RMK A01 T000200-0  RH  098%=      5-min Rain = 0
KPA1 141349Z 35010KT 00/00 A3007 RMK A01 T000200-0  RH  098%=      5-min Rain = 0
KPA1 141350Z 35010KT 00/M00 A3007 RMK A01 T00021001  RH  098%=      5-min Rain = 0
KPA1 141351Z 35010KT 00/M00 A3007 RMK A01 T00021001  RH  098%=      5-min Rain = 0
KPA1 141352Z 35012KT 00/00 A3007 RMK A01 T000200-0  RH  098%=      5-min Rain = 0
KPA1 141353Z 36009KT 00/00 A3007 RMK A01 T000200-0  RH  098%=      5-min Rain = 0
KPA1 141354Z 35010KT 00/00 A3007 RMK A01 T000200-0  RH  098%=      5-min Rain = 0
KPA1 141355Z 35010KT 00/M00 A3007 RMK A01 T00021001  RH  098%=      5-min Rain = 0
KPA1 141356Z 36011KT 00/M00 A3007 RMK A01 T00021001  RH  098%=      5-min Rain = 0
KPA1 141357Z 35010KT 00/M00 A3007 RMK A01 T00021001  RH  098%=      5-min Rain = 0
KPA1 141358Z 35010KT 00/M00 A3007 RMK A01 T00011001  RH  098%=      5-min Rain = 0
KPA1 141359Z 35011KT 00/M00 A3007 RMK A01 T00011001  RH  098%=      5-min Rain = 0
KPA1 141400Z 35010KT 00/M00 A3007 RMK A01 T00011001  RH  098%=      5-min Rain = 0
KPA1 141401Z 35009KT 00/M00 A3007 RMK A01 T00021001  RH  098%=      5-min Rain = 0
KPA1 141402Z 35009KT 00/M00 A3007 RMK A01 T00021001  RH  098%=      5-min Rain = 0
KPA1 141403Z 35009KT 00/M00 A3007 RMK A01 T00011001  RH  098%=      5-min Rain = 0
KPA1 141404Z 34011KT 00/M00 A3007 RMK A01 T00021001  RH  098%=      5-min Rain = 0
KPA1 141405Z 34010KT 00/M00 A3007 RMK A01 T00011001  RH  098%=      5-min Rain = 0
KPA1 141406Z 34010KT 00/M00 A3007 RMK A01 T00011001  RH  098%=      5-min Rain = 0
KPA1 141407Z 34009KT 00/M00 A3007 RMK A01 T00021001  RH  098%=      5-min Rain = 0
KPA1 141408Z 34010KT 00/M00 A3007 RMK A01 T00011001  RH  098%=      5-min Rain = 0
KPA1 141409Z 34010KT 00/M00 A3007 RMK A01 T00011001  RH  098%=      5-min Rain = 0
KPA1 141410Z 34010KT 00/M00 A3007 RMK A01 T00021001  RH  098%=      5-min Rain = 0
KPA1 141411Z 34010KT 00/M00 A3007 RMK A01 T00011001  RH  098%=      5-min Rain = 0
KPA1 141412Z 34010KT 00/M00 A3008 RMK A01 T00011001  RH  098%=      5-min Rain = 0.01
KPA1 141413Z 34011KT 00/M00 A3008 RMK A01 T00011001  RH  099%=      5-min Rain = 0
KPA1 141414Z 34012KT 00/M00 A3007 RMK A01 T00011001  RH  099%=      5-min Rain = 0
KPA1 141415Z 35011KT 00/M00 A3008 RMK A01 T00011001  RH  099%=      5-min Rain = 0
KPA1 141416Z 35013KT 00/00 A3008 RMK A01 T000200-0  RH  099%=      5-min Rain = 0
KPA1 141417Z 34014KT 00/00 A3007 RMK A01 T000200-0  RH  099%=      5-min Rain = 0
KPA1 141418Z 35015KT 00/00 A3008 RMK A01 T000200-0  RH  099%=      5-min Rain = 0
KPA1 141419Z 35014KT 00/00 A3007 RMK A01 T00020000  RH  099%=      5-min Rain = 0
KPA1 141420Z 35014KT 00/00 A3007 RMK A01 T00020000  RH  099%=      5-min Rain = 0
KPA1 141421Z 35015KT 00/00 A3008 RMK A01 T00020000  RH  099%=      5-min Rain = 0
KPA1 141422Z 35015G21KT 00/00 A3008 RMK A01 T000200-0  RH  098%=      5-min Rain = 0
KPA1 141423Z 35018KT 00/00 A3008 RMK A01 T00020000  RH  099%=      5-min Rain = 0
KPA1 141424Z 35016KT 00/00 A3008 RMK A01 T00020000  RH  099%=      5-min Rain = 0
KPA1 141425Z 35016KT 00/00 A3008 RMK A01 T00030001  RH  099%=      5-min Rain = 0
KPA1 141426Z 35014KT 00/00 A3008 RMK A01 T00030001  RH  098%=      5-min Rain = 0
KPA1 141427Z 35014KT 00/00 A3008 RMK A01 T00030000  RH  098%=      5-min Rain = 0
KPA1 141428Z 35012KT 00/00 A3008 RMK A01 T00030000  RH  098%=      5-min Rain = 0
KPA1 141429Z 35014KT 00/00 A3008 RMK A01 T00030001  RH  098%=      5-min Rain = 0
KPA1 141430Z 35016KT 00/00 A3008 RMK A01 T00030001  RH  098%=      5-min Rain = 0
KPA1 141431Z 35017KT 00/00 A3008 RMK A01 T00030001  RH  098%=      5-min Rain = 0
KPA1 141432Z 35017KT 00/00 A3008 RMK A01 T00030001  RH  098%=      5-min Rain = 0
KPA1 141433Z 35016KT 00/00 A3008 RMK A01 T00030001  RH  098%=      5-min Rain = 0
KPA1 141434Z 35017KT 00/00 A3008 RMK A01 T00030001  RH  098%=      5-min Rain = 0.01
KPA1 141435Z 35016KT 00/00 A3008 RMK A01 T00030001  RH  098%=      5-min Rain = 0
KPA1 141436Z 35017KT 00/00 A3008 RMK A01 T00030000  RH  098%=      5-min Rain = 0
KPA1 141437Z 35017KT 00/00 A3008 RMK A01 T00020000  RH  098%=      5-min Rain = 0
KPA1 141438Z 35015KT 00/00 A3008 RMK A01 T000200-0  RH  098%=      5-min Rain = 0
KPA1 141439Z 35016KT 00/00 A3008 RMK A01 T00030000  RH  098%=      5-min Rain = 0
KPA1 141440Z 35017KT 00/00 A3008 RMK A01 T00020000  RH  098%=      5-min Rain = 0
KPA1 141441Z 35016G21KT 00/00 A3009 RMK A01 T000200-0  RH  098%=      5-min Rain = 0
KPA1 141442Z 35015KT 00/00 A3009 RMK A01 T000200-0  RH  098%=      5-min Rain = 0
KPA1 141443Z 35016KT 00/00 A3008 RMK A01 T000200-0  RH  098%=      5-min Rain = 0
KPA1 141444Z 35017KT 00/00 A3009 RMK A01 T000200-0  RH  098%=      5-min Rain = 0
KPA1 141445Z 35018KT 00/00 A3009 RMK A01 T000200-0  RH  098%=      5-min Rain = 0
KPA1 141446Z 35020KT 00/00 A3009 RMK A01 T000200-0  RH  098%=      5-min Rain = 0
KPA1 141447Z 35018KT 00/00 A3009 RMK A01 T00020000  RH  098%=      5-min Rain = 0
KPA1 141448Z 35016KT 00/00 A3009 RMK A01 T000200-0  RH  098%=      5-min Rain = 0
KPA1 141449Z 34016KT 00/00 A3009 RMK A01 T000200-0  RH  098%=      5-min Rain = 0
KPA1 141450Z 35017KT 00/00 A3009 RMK A01 T000200-0  RH  098%=      5-min Rain = 0
KPA1 141451Z 35016G21KT 00/00 A3009 RMK A01 T000200-0  RH  098%=      5-min Rain = 0
KPA1 141452Z 35015KT 00/00 A3009 RMK A01 T000200-0  RH  098%=      5-min Rain = 0
KPA1 141453Z 35017KT 00/00 A3009 RMK A01 T000200-0  RH  098%=      5-min Rain = 0.01
KPA1 141454Z 35017KT 00/00 A3009 RMK A01 T000200-0  RH  098%=      5-min Rain = 0
KPA1 141455Z 35017KT 00/00 A3009 RMK A01 T00030000  RH  098%=      5-min Rain = 0
KPA1 141456Z 35017KT 00/00 A3009 RMK A01 T000200-0  RH  098%=      5-min Rain = 0
KPA1 141457Z 36018KT 00/00 A3009 RMK A01 T000200-0  RH  098%=      5-min Rain = 0
KPA1 141458Z 35018KT 00/00 A3009 RMK A01 T000200-0  RH  098%=      5-min Rain = 0
KPA1 141459Z 35019G25KT 00/M00 A3009 RMK A01 T00021001  RH  098%=      5-min Rain = 0
KPA1 141500Z 35021KT 00/M00 A3009 RMK A01 T00021001  RH  098%=      5-min Rain = 0
KPA1 141501Z 35020KT 00/M00 A3009 RMK A01 T00021001  RH  098%=      5-min Rain = 0
KPA1 141502Z 35019KT 00/M00 A3009 RMK A01 T00021001  RH  098%=      5-min Rain = 0
KPA1 141503Z 35022KT 00/M00 A3009 RMK A01 T00021001  RH  098%=      5-min Rain = 0
KPA1 141504Z 35019KT 00/M00 A3009 RMK A01 T00021001  RH  098%=      5-min Rain = 0
KPA1 141505Z 36020KT 00/M00 A3009 RMK A01 T00021001  RH  098%=      5-min Rain = 0
KPA1 141506Z 36020KT 00/M00 A3009 RMK A01 T00021001  RH  098%=      5-min Rain = 0
KPA1 141507Z 36020KT 00/M00 A3009 RMK A01 T00021001  RH  098%=      5-min Rain = 0
KPA1 141508Z 36019G25KT 00/M00 A3009 RMK A01 T00021001  RH  098%=      5-min Rain = 0
KPA1 141509Z 35019G24KT 00/M00 A3009 RMK A01 T00021001  RH  098%=      5-min Rain = 0
KPA1 141510Z 36021G27KT 00/M00 A3009 RMK A01 T00021001  RH  098%=      5-min Rain = 0
KPA1 141511Z 36018KT 00/M00 A3009 RMK A01 T00021001  RH  098%=      5-min Rain = 0
KPA1 141512Z 36022G27KT 00/M00 A3009 RMK A01 T00021001  RH  098%=      5-min Rain = 0
KPA1 141513Z 36022KT 00/M00 A3009 RMK A01 T00021001  RH  098%=      5-min Rain = 0
KPA1 141514Z 00022KT 00/M00 A3009 RMK A01 T00021001  RH  098%=      5-min Rain = 0.01
KPA1 141515Z 00019KT 00/00 A301 RMK A01 T000300-0  RH  098%=      5-min Rain = 0
KPA1 141516Z 00021G26KT 00/M00 A301 RMK A01 T00021001  RH  098%=      5-min Rain = 0
KPA1 141517Z 00021KT 00/M00 A301 RMK A01 T00021001  RH  098%=      5-min Rain = 0
KPA1 141518Z 00021G28KT 00/M00 A301 RMK A01 T00021001  RH  098%=      5-min Rain = 0
KPA1 141519Z 00020KT 00/M00 A301 RMK A01 T00021001  RH  098%=      5-min Rain = 0
KPA1 141520Z 00021G29KT 00/00 A301 RMK A01 T000300-0  RH  098%=      5-min Rain = 0
KPA1 141521Z 00020G25KT 00/00 A301 RMK A01 T000300-0  RH  098%=      5-min Rain = 0
KPA1 141522Z 36017KT 00/00 A301 RMK A01 T00030000  RH  098%=      5-min Rain = 0
KPA1 141523Z 00019KT 00/00 A301 RMK A01 T000300-0  RH  098%=      5-min Rain = 0
KPA1 141524Z 36021KT 00/00 A301 RMK A01 T000300-0  RH  098%=      5-min Rain = 0
KPA1 141525Z 36021KT 00/00 A301 RMK A01 T000300-0  RH  098%=      5-min Rain = 0
KPA1 141526Z 35021KT 00/00 A301 RMK A01 T00030000  RH  098%=      5-min Rain = 0
KPA1 141527Z 36019KT 00/00 A301 RMK A01 T00030000  RH  098%=      5-min Rain = 0
KPA1 141528Z 36018KT 00/00 A301 RMK A01 T00030000  RH  098%=      5-min Rain = 0.01
KPA1 141529Z 36020G26KT 00/00 A301 RMK A01 T00030000  RH  098%=      5-min Rain = 0
KPA1 141530Z 36021KT 00/00 A301 RMK A01 T00030000  RH  098%=      5-min Rain = 0
KPA1 141531Z 36022KT 00/00 A301 RMK A01 T00030000  RH  098%=      5-min Rain = 0
KPA1 141532Z 00018KT 00/00 A301 RMK A01 T00040001  RH  098%=      5-min Rain = 0
KPA1 141533Z 00016KT 00/00 A3011 RMK A01 T00040001  RH  098%=      5-min Rain = 0
KPA1 141534Z 00017KT 00/00 A3011 RMK A01 T00040001  RH  098%=      5-min Rain = 0
KPA1 141535Z 36019G24KT 00/00 A301 RMK A01 T00040000  RH  098%=      5-min Rain = 0
KPA1 141536Z 00020KT 00/00 A3011 RMK A01 T00040001  RH  098%=      5-min Rain = 0.01
KPA1 141537Z 00017KT 00/00 A3011 RMK A01 T00040000  RH  098%=      5-min Rain = 0
KPA1 141538Z 00018KT 00/00 A3011 RMK A01 T000300-0  RH  098%=      5-min Rain = 0
KPA1 141539Z 36017KT 00/00 A3011 RMK A01 T000300-0  RH  098%=      5-min Rain = 0
KPA1 141540Z 00018G23KT 00/00 A3011 RMK A01 T000300-0  RH  098%=      5-min Rain = 0
KPA1 141541Z 36016KT 00/00 A3011 RMK A01 T000300-0  RH  098%=      5-min Rain = 0
KPA1 141542Z 00016KT 00/M00 A3011 RMK A01 T00031001  RH  098%=      5-min Rain = 0
KPA1 141543Z 36017KT 00/M00 A3011 RMK A01 T00031001  RH  098%=      5-min Rain = 0
KPA1 141544Z 36016KT 00/M00 A3011 RMK A01 T00021001  RH  098%=      5-min Rain = 0
KPA1 141545Z 35016KT 00/M00 A3011 RMK A01 T00021001  RH  098%=      5-min Rain = 0
KPA1 141546Z 35015KT 00/M00 A3011 RMK A01 T00021001  RH  098%=      5-min Rain = 0
KPA1 141547Z 36016KT 00/M00 A3011 RMK A01 T00021001  RH  098%=      5-min Rain = 0
KPA1 141548Z 35015KT 00/M00 A3011 RMK A01 T00021001  RH  098%=      5-min Rain = 0.01
KPA1 141549Z 35017KT 00/M00 A3011 RMK A01 T00021001  RH  098%=      5-min Rain = 0
KPA1 141550Z 36015KT 00/M00 A3011 RMK A01 T00011002  RH  098%=      5-min Rain = 0
KPA1 141551Z 35015KT 00/M00 A3011 RMK A01 T00011002  RH  098%=      5-min Rain = 0
KPA1 141552Z 35015G20KT 00/M00 A3011 RMK A01 T00011002  RH  098%=      5-min Rain = 0
KPA1 141553Z 35015KT 00/M00 A3011 RMK A01 T00011002  RH  098%=      5-min Rain = 0
KPA1 141554Z 35017KT 00/M00 A3011 RMK A01 T00011002  RH  098%=      5-min Rain = 0
KPA1 141555Z 35015KT 00/M00 A3011 RMK A01 T00011002  RH  098%=      5-min Rain = 0
KPA1 141556Z 35016KT 00/M00 A3011 RMK A01 T00011002  RH  098%=      5-min Rain = 0
KPA1 141557Z 35016KT 00/M00 A3012 RMK A01 T00011002  RH  098%=      5-min Rain = 0
KPA1 141558Z 35017KT 00/M00 A3012 RMK A01 T00011002  RH  098%=      5-min Rain = 0
KPA1 141559Z 35016KT 00/M00 A3012 RMK A01 T00011002  RH  098%=      5-min Rain = 0
KPA1 141600Z 35014KT 00/M00 A3012 RMK A01 T00011002  RH  098%=      5-min Rain = 0
KPA1 141601Z 34015KT 00/M00 A3012 RMK A01 T00011002  RH  098%=      5-min Rain = 0
KPA1 141602Z 35012G18KT 00/M00 A3012 RMK A01 T00011002  RH  098%=      5-min Rain = 0
KPA1 141603Z 35017KT 00/00 A3012 RMK A01 T000000-3  RH  098%=      5-min Rain = 0
KPA1 141604Z 35013KT 00/00 A3012 RMK A01 T000000-3  RH  098%=      5-min Rain = 0
KPA1 141605Z 36013KT 00/00 A3012 RMK A01 T000000-3  RH  098%=      5-min Rain = 0
KPA1 141606Z 35012KT 00/00 A3012 RMK A01 T000000-3  RH  098%=      5-min Rain = 0.01
KPA1 141607Z 35014KT 00/00 A3012 RMK A01 T00-000-3  RH  098%=      5-min Rain = 0
KPA1 141608Z 35013KT 00/00 A3012 RMK A01 T00-000-3  RH  098%=      5-min Rain = 0
KPA1 141609Z 35011KT 00/00 A3012 RMK A01 T00-000-3  RH  098%=      5-min Rain = 0
KPA1 141610Z 35011KT 00/00 A3012 RMK A01 T000000-3  RH  098%=      5-min Rain = 0
KPA1 141611Z 35011KT 00/00 A3012 RMK A01 T000000-3  RH  098%=      5-min Rain = 0
KPA1 141612Z 35014KT 00/00 A3012 RMK A01 T00-000-3  RH  098%=      5-min Rain = 0
KPA1 141613Z 35012KT 00/00 A3012 RMK A01 T000000-2  RH  098%=      5-min Rain = 0
KPA1 141614Z 35013KT 00/00 A3012 RMK A01 T000000-3  RH  098%=      5-min Rain = 0
KPA1 141615Z 35012KT 00/00 A3012 RMK A01 T000000-3  RH  098%=      5-min Rain = 0
KPA1 141616Z 35011KT 00/00 A3013 RMK A01 T000000-3  RH  098%=      5-min Rain = 0
KPA1 141617Z 34011KT 00/00 A3013 RMK A01 T000000-3  RH  098%=      5-min Rain = 0
KPA1 141618Z 34011KT 00/00 A3013 RMK A01 T00-000-3  RH  098%=      5-min Rain = 0.01
KPA1 141619Z 34012KT 00/00 A3013 RMK A01 T000000-3  RH  098%=      5-min Rain = 0
KPA1 141620Z 35012KT 00/00 A3012 RMK A01 T000000-3  RH  098%=      5-min Rain = 0
KPA1 141621Z 34010KT 00/00 A3012 RMK A01 T00-000-3  RH  098%=      5-min Rain = 0
KPA1 141622Z 35011KT 00/00 A3012 RMK A01 T00-000-3  RH  098%=      5-min Rain = 0
KPA1 141623Z 34013KT 00/00 A3012 RMK A01 T000000-3  RH  098%=      5-min Rain = 0
KPA1 141624Z 35012KT 00/00 A3012 RMK A01 T000000-3  RH  098%=      5-min Rain = 0
KPA1 141625Z 34013KT 00/00 A3012 RMK A01 T000000-3  RH  098%=      5-min Rain = 0
KPA1 141626Z 34010KT 00/00 A3013 RMK A01 T000000-3  RH  098%=      5-min Rain = 0.01
KPA1 141627Z 34013KT 00/00 A3012 RMK A01 T00-000-3  RH  098%=      5-min Rain = 0
KPA1 141628Z 35012KT 00/00 A3012 RMK A01 T000000-3  RH  098%=      5-min Rain = 0
KPA1 141629Z 34010KT 00/00 A3013 RMK A01 T000000-3  RH  098%=      5-min Rain = 0
KPA1 141630Z 35010KT 00/00 A3013 RMK A01 T000000-3  RH  098%=      5-min Rain = 0
KPA1 141631Z 34010KT 00/00 A3013 RMK A01 T000000-3  RH  098%=      5-min Rain = 0
KPA1 141632Z 34012KT 00/00 A3013 RMK A01 T000000-3  RH  098%=      5-min Rain = 0
KPA1 141633Z 34010KT 00/00 A3013 RMK A01 T000000-2  RH  098%=      5-min Rain = 0
KPA1 141634Z 34013KT 00/00 A3013 RMK A01 T00-000-3  RH  098%=      5-min Rain = 0.01
KPA1 141635Z 34010KT 00/00 A3013 RMK A01 T000000-2  RH  098%=      5-min Rain = 0
KPA1 141636Z 34010KT 00/00 A3013 RMK A01 T000000-3  RH  098%=      5-min Rain = 0
KPA1 141637Z 34012KT 00/00 A3013 RMK A01 T000000-3  RH  098%=      5-min Rain = 0
KPA1 141638Z 35011KT 00/00 A3013 RMK A01 T000000-3  RH  098%=      5-min Rain = 0
KPA1 141639Z 34010KT 00/00 A3013 RMK A01 T000000-2  RH  098%=      5-min Rain = 0
KPA1 141640Z 35011KT 00/M00 A3013 RMK A01 T00011002  RH  098%=      5-min Rain = 0
KPA1 141641Z 35012KT 00/00 A3013 RMK A01 T000000-2  RH  098%=      5-min Rain = 0.01
KPA1 141642Z 34012KT 00/M00 A3013 RMK A01 T00011002  RH  098%=      5-min Rain = 0
KPA1 141643Z 34011KT 00/M00 A3013 RMK A01 T00011002  RH  098%=      5-min Rain = 0
KPA1 141644Z 35009KT 00/M00 A3013 RMK A01 T00011002  RH  098%=      5-min Rain = 0
KPA1 141645Z 34011KT 00/M00 A3013 RMK A01 T00011002  RH  098%=      5-min Rain = 0
KPA1 141646Z 34011KT 00/M00 A3013 RMK A01 T00011002  RH  098%=      5-min Rain = 0
KPA1 141647Z 34010KT 00/M00 A3014 RMK A01 T00011002  RH  098%=      5-min Rain = 0
KPA1 141648Z 34012KT 00/00 A3013 RMK A01 T000000-2  RH  098%=      5-min Rain = 0
KPA1 141649Z 34012KT 00/00 A3013 RMK A01 T000000-2  RH  098%=      5-min Rain = 0
KPA1 141650Z 34011KT 00/M00 A3013 RMK A01 T00011002  RH  098%=      5-min Rain = 0.01
KPA1 141651Z 34014KT 00/M00 A3013 RMK A01 T00011002  RH  098%=      5-min Rain = 0
KPA1 141652Z 35013KT 00/M00 A3013 RMK A01 T00011002  RH  098%=      5-min Rain = 0
KPA1 141653Z 35014KT 00/00 A3013 RMK A01 T000000-2  RH  098%=      5-min Rain = 0
KPA1 141654Z 34013KT 00/M00 A3013 RMK A01 T00011002  RH  098%=      5-min Rain = 0
KPA1 141655Z 34015KT 00/M00 A3013 RMK A01 T00011002  RH  098%=      5-min Rain = 0
KPA1 141656Z 34014G19KT 00/00 A3013 RMK A01 T000000-2  RH  098%=      5-min Rain = 0
KPA1 141657Z 35017KT 00/00 A3013 RMK A01 T000000-2  RH  098%=      5-min Rain = 0
KPA1 141658Z 34015KT 00/00 A3013 RMK A01 T000000-2  RH  098%=      5-min Rain = 0
KPA1 141659Z 35015KT 00/00 A3013 RMK A01 T000000-3  RH  098%=      5-min Rain = 0
KPA1 141700Z 34013KT 00/00 A3013 RMK A01 T000000-3  RH  098%=      5-min Rain = 0
KPA1 141701Z 35015KT 00/00 A3013 RMK A01 T00-000-3  RH  098%=      5-min Rain = 0.01
KPA1 141702Z 34015KT 00/00 A3013 RMK A01 T000000-2  RH  098%=      5-min Rain = 0
KPA1 141703Z 35012KT 00/00 A3013 RMK A01 T000000-3  RH  098%=      5-min Rain = 0
KPA1 141704Z 34013KT 00/00 A3013 RMK A01 T000000-3  RH  098%=      5-min Rain = 0
KPA1 141705Z 34012KT 00/00 A3013 RMK A01 T00-000-3  RH  098%=      5-min Rain = 0
KPA1 141706Z 34013KT 00/M00 A3014 RMK A01 T00011002  RH  098%=      5-min Rain = 0
KPA1 141707Z 34018KT 00/M00 A3013 RMK A01 T00011002  RH  098%=      5-min Rain = 0
KPA1 141708Z 35015KT 00/M00 A3013 RMK A01 T00011002  RH  098%=      5-min Rain = 0
KPA1 141709Z 35016KT 00/M00 A3014 RMK A01 T00011002  RH  098%=      5-min Rain = 0
KPA1 141710Z 35017G22KT 00/00 A3014 RMK A01 T000000-3  RH  098%=      5-min Rain = 0
KPA1 141711Z 35016KT 00/M00 A3014 RMK A01 T00011003  RH  098%=      5-min Rain = 0
KPA1 141712Z 35014KT 00/M00 A3014 RMK A01 T00011003  RH  098%=      5-min Rain = 0
KPA1 141713Z 35015KT 00/M00 A3014 RMK A01 T00011003  RH  098%=      5-min Rain = 0
KPA1 141714Z 35016KT 00/M00 A3014 RMK A01 T00011002  RH  098%=      5-min Rain = 0.01
KPA1 141715Z 35015KT 00/M00 A3014 RMK A01 T00011003  RH  098%=      5-min Rain = 0
KPA1 141716Z 35014G20KT 00/M00 A3014 RMK A01 T00011003  RH  098%=      5-min Rain = 0
KPA1 141717Z 35014KT 00/00 A3014 RMK A01 T000000-3  RH  098%=      5-min Rain = 0
KPA1 141718Z 35013KT 00/M00 A3014 RMK A01 T00011003  RH  098%=      5-min Rain = 0
KPA1 141719Z 36014KT 00/00 A3014 RMK A01 T000000-3  RH  098%=      5-min Rain = 0
KPA1 141720Z 35010KT 00/00 A3014 RMK A01 T000000-3  RH  098%=      5-min Rain = 0
KPA1 141721Z 35012KT 00/M00 A3014 RMK A01 T00011003  RH  098%=      5-min Rain = 0
KPA1 141722Z 35012KT 00/M00 A3014 RMK A01 T00011002  RH  098%=      5-min Rain = 0
KPA1 141723Z 35013KT 00/00 A3014 RMK A01 T000000-3  RH  098%=      5-min Rain = 0
KPA1 141724Z 35012KT 00/00 A3014 RMK A01 T000000-3  RH  098%=      5-min Rain = 0
KPA1 141725Z 35011KT 00/M00 A3014 RMK A01 T00011003  RH  098%=      5-min Rain = 0
KPA1 141726Z 35012KT 00/00 A3014 RMK A01 T000000-3  RH  098%=      5-min Rain = 0
KPA1 141727Z 35013KT 00/M00 A3014 RMK A01 T00011003  RH  098%=      5-min Rain = 0
KPA1 141728Z 35013KT 00/M00 A3014 RMK A01 T00011003  RH  098%=      5-min Rain = 0
KPA1 141729Z 35012KT 00/M00 A3014 RMK A01 T00011003  RH  098%=      5-min Rain = 0
KPA1 141730Z 35013KT 00/M00 A3014 RMK A01 T00011002  RH  098%=      5-min Rain = 0
KPA1 141731Z 35013KT 00/M00 A3014 RMK A01 T00011002  RH  098%=      5-min Rain = 0
KPA1 141732Z 35011KT 00/M00 A3014 RMK A01 T00011002  RH  098%=      5-min Rain = 0
KPA1 141733Z 35012KT 00/00 A3014 RMK A01 T000000-3  RH  098%=      5-min Rain = 0
KPA1 141734Z 34011KT 00/M00 A3014 RMK A01 T00011002  RH  098%=      5-min Rain = 0.01
KPA1 141735Z 35012KT 00/M00 A3014 RMK A01 T00011003  RH  098%=      5-min Rain = 0
KPA1 141736Z 35013KT 00/M00 A3014 RMK A01 T00011003  RH  098%=      5-min Rain = 0
KPA1 141737Z 35013KT 00/M00 A3014 RMK A01 T00011002  RH  098%=      5-min Rain = 0
KPA1 141738Z 35011KT 00/M00 A3014 RMK A01 T00011003  RH  098%=      5-min Rain = 0
KPA1 141739Z 35011KT 00/M00 A3014 RMK A01 T00011003  RH  098%=      5-min Rain = 0
KPA1 141740Z 35010KT 00/M00 A3014 RMK A01 T00011003  RH  098%=      5-min Rain = 0
KPA1 141741Z 35010KT 00/M00 A3014 RMK A01 T00011003  RH  098%=      5-min Rain = 0
KPA1 141742Z 35011KT 00/M00 A3014 RMK A01 T00011003  RH  098%=      5-min Rain = 0
KPA1 141743Z 35012KT 00/00 A3014 RMK A01 T000000-3  RH  098%=      5-min Rain = 0
KPA1 141744Z 36011KT 00/M00 A3014 RMK A01 T00011003  RH  098%=      5-min Rain = 0
KPA1 141745Z 36010KT 00/M00 A3014 RMK A01 T00011003  RH  098%=      5-min Rain = 0
KPA1 141746Z 01012KT 00/M00 A3014 RMK A01 T00011002  RH  098%=      5-min Rain = 0
KPA1 141747Z 36012KT 00/M00 A3014 RMK A01 T00011003  RH  098%=      5-min Rain = 0
KPA1 141748Z 34014G20KT 00/M00 A3014 RMK A01 T00011003  RH  097%=      5-min Rain = 0
KPA1 141749Z 35014KT 00/00 A3014 RMK A01 T000000-3  RH  097%=      5-min Rain = 0
KPA1 141750Z 35012KT 00/M00 A3014 RMK A01 T00011003  RH  097%=      5-min Rain = 0
KPA1 141751Z 36013KT 00/00 A3014 RMK A01 T000000-3  RH  097%=      5-min Rain = 0.01
KPA1 141752Z 36014KT 00/00 A3014 RMK A01 T000000-4  RH  097%=      5-min Rain = 0
KPA1 141753Z 36012KT 00/00 A3014 RMK A01 T00-000-4  RH  097%=      5-min Rain = 0
KPA1 141754Z 35012KT 00/00 A3014 RMK A01 T000000-4  RH  097%=      5-min Rain = 0
KPA1 141755Z 36012KT 00/00 A3014 RMK A01 T00-000-4  RH  097%=      5-min Rain = 0
KPA1 141756Z 35012KT 00/00 A3014 RMK A01 T00-000-4  RH  097%=      5-min Rain = 0
KPA1 141757Z 35015KT 00/00 A3014 RMK A01 T00-000-4  RH  097%=      5-min Rain = 0
KPA1 141758Z 36016KT M00/M01 A3014 RMK A01 T10011005  RH  097%=      5-min Rain = 0
KPA1 141759Z 35015KT M00/M01 A3014 RMK A01 T10011005  RH  097%=      5-min Rain = 0
KPA1 141800Z 35015KT M00/M01 A3014 RMK A01 T10011005  RH  097%=      5-min Rain = 0
KPA1 141801Z 35014G19KT M00/M01 A3014 RMK A01 T10011005  RH  097%=      5-min Rain = 0
KPA1 141802Z 35014KT M00/M01 A3014 RMK A01 T10011005  RH  097%=      5-min Rain = 0.01
KPA1 141803Z 35014KT M00/M01 A3014 RMK A01 T10011005  RH  097%=      5-min Rain = 0
KPA1 141804Z 34012KT M00/M01 A3014 RMK A01 T10011005  RH  097%=      5-min Rain = 0
KPA1 141805Z 35013KT M00/M01 A3014 RMK A01 T10011006  RH  097%=      5-min Rain = 0
KPA1 141806Z 34013KT M00/M01 A3014 RMK A01 T10011006  RH  097%=      5-min Rain = 0
KPA1 141807Z 35012KT M00/M01 A3014 RMK A01 T10011005  RH  097%=      5-min Rain = 0
KPA1 141808Z 35014KT M00/M01 A3014 RMK A01 T10011005  RH  097%=      5-min Rain = 0
KPA1 141809Z 34012KT M00/M01 A3014 RMK A01 T10011006  RH  097%=      5-min Rain = 0
KPA1 141810Z 34012G17KT M00/M01 A3014 RMK A01 T10021006  RH  097%=      5-min Rain = 0
KPA1 141811Z 34014KT M00/M01 A3014 RMK A01 T10011006  RH  097%=      5-min Rain = 0
KPA1 141812Z 34015KT M00/M01 A3014 RMK A01 T10011006  RH  097%=      5-min Rain = 0
KPA1 141813Z 35014KT M00/M01 A3014 RMK A01 T10011006  RH  097%=      5-min Rain = 0
KPA1 141814Z 35016KT M00/M01 A3014 RMK A01 T10011006  RH  097%=      5-min Rain = 0.01
KPA1 141815Z 35016G21KT M00/M01 A3014 RMK A01 T10021006  RH  097%=      5-min Rain = 0
KPA1 141816Z 35012KT M00/M01 A3014 RMK A01 T10021006  RH  097%=      5-min Rain = 0
KPA1 141817Z 35014KT M00/M01 A3014 RMK A01 T10021007  RH  097%=      5-min Rain = 0
KPA1 141818Z 35014KT M00/M01 A3014 RMK A01 T10021007  RH  097%=      5-min Rain = 0
KPA1 141819Z 35014KT M00/M01 A3014 RMK A01 T10021007  RH  097%=      5-min Rain = 0
KPA1 141820Z 35015KT M00/M01 A3014 RMK A01 T10021007  RH  097%=      5-min Rain = 0
KPA1 141821Z 35015KT M00/M01 A3014 RMK A01 T10021007  RH  097%=      5-min Rain = 0
KPA1 141822Z 35014KT M00/M01 A3014 RMK A01 T10021007  RH  096%=      5-min Rain = 0
KPA1 141823Z 35013KT M00/M01 A3014 RMK A01 T10021007  RH  096%=      5-min Rain = 0
KPA1 141824Z 34013G18KT M00/M01 A3014 RMK A01 T10021007  RH  096%=      5-min Rain = 0
KPA1 141825Z 35015KT M00/M01 A3014 RMK A01 T10021007  RH  096%=      5-min Rain = 0
KPA1 141826Z 35014KT M00/M01 A3014 RMK A01 T10021007  RH  096%=      5-min Rain = 0
KPA1 141827Z 35015KT M00/M01 A3014 RMK A01 T10021007  RH  096%=      5-min Rain = 0
KPA1 141828Z 35013KT M00/M01 A3014 RMK A01 T10021007  RH  096%=      5-min Rain = 0
KPA1 141829Z 35013KT M00/M01 A3014 RMK A01 T10021007  RH  096%=      5-min Rain = 0
KPA1 141830Z 35012KT M00/M01 A3014 RMK A01 T10021006  RH  096%=      5-min Rain = 0
KPA1 141831Z 35012KT M00/M01 A3014 RMK A01 T10021007  RH  097%=      5-min Rain = 0
KPA1 141832Z 35013KT M00/M01 A3014 RMK A01 T10021007  RH  097%=      5-min Rain = 0
KPA1 141833Z 35011KT M00/M01 A3014 RMK A01 T10021007  RH  097%=      5-min Rain = 0
KPA1 141834Z 35011KT M00/M01 A3014 RMK A01 T10021006  RH  097%=      5-min Rain = 0
KPA1 141835Z 34012KT M00/M01 A3014 RMK A01 T10011006  RH  097%=      5-min Rain = 0.01
KPA1 141836Z 34011KT M00/M01 A3014 RMK A01 T10011006  RH  097%=      5-min Rain = 0
KPA1 141837Z 35011KT M00/M01 A3014 RMK A01 T10011006  RH  097%=      5-min Rain = 0
KPA1 141838Z 34011KT M00/M01 A3014 RMK A01 T10011006  RH  097%=      5-min Rain = 0
KPA1 141839Z 34013KT M00/M01 A3014 RMK A01 T10011006  RH  097%=      5-min Rain = 0
KPA1 141840Z 35013KT M00/M01 A3014 RMK A01 T10021006  RH  097%=      5-min Rain = 0
KPA1 141841Z 34011KT M00/M01 A3014 RMK A01 T10021006  RH  097%=      5-min Rain = 0
KPA1 141842Z 34010G15KT M00/M01 A3014 RMK A01 T10021006  RH  097%=      5-min Rain = 0
KPA1 141843Z 35015KT M00/M01 A3014 RMK A01 T10021006  RH  097%=      5-min Rain = 0
KPA1 141844Z 34014KT M00/M01 A3014 RMK A01 T10021007  RH  097%=      5-min Rain = 0
KPA1 141845Z 35015KT M00/M01 A3014 RMK A01 T10021007  RH  097%=      5-min Rain = 0
KPA1 141846Z 34016KT M00/M01 A3014 RMK A01 T10021007  RH  097%=      5-min Rain = 0
KPA1 141847Z 35012KT M00/M01 A3014 RMK A01 T10031007  RH  097%=      5-min Rain = 0
KPA1 141848Z 35014KT M00/M01 A3014 RMK A01 T10031007  RH  097%=      5-min Rain = 0
KPA1 141849Z 34013KT M00/M01 A3014 RMK A01 T10031007  RH  097%=      5-min Rain = 0
KPA1 141850Z 34012KT M00/M01 A3014 RMK A01 T10031007  RH  097%=      5-min Rain = 0
KPA1 141851Z 35013KT M00/M01 A3014 RMK A01 T10031007  RH  097%=      5-min Rain = 0
KPA1 141852Z 35018KT M00/M01 A3014 RMK A01 T10031007  RH  097%=      5-min Rain = 0
KPA1 141853Z 35014KT M00/M01 A3014 RMK A01 T10031008  RH  097%=      5-min Rain = 0
KPA1 141854Z 35014KT M00/M01 A3014 RMK A01 T10031008  RH  097%=      5-min Rain = 0
KPA1 141855Z 34016KT M00/M01 A3014 RMK A01 T10031008  RH  097%=      5-min Rain = 0.01
KPA1 141856Z 35016KT M00/M01 A3014 RMK A01 T10031008  RH  097%=      5-min Rain = 0
KPA1 141857Z 35014KT M00/M01 A3014 RMK A01 T10031008  RH  097%=      5-min Rain = 0
KPA1 141858Z 35012KT M00/M01 A3014 RMK A01 T10031008  RH  097%=      5-min Rain = 0
KPA1 141859Z 35013KT M00/M01 A3014 RMK A01 T10031008  RH  097%=      5-min Rain = 0
KPA1 141900Z 35012KT M00/M01 A3014 RMK A01 T10031008  RH  097%=      5-min Rain = 0
KPA1 141901Z 35014G19KT M00/M01 A3014 RMK A01 T10031008  RH  097%=      5-min Rain = 0
KPA1 141902Z 34014KT M00/M01 A3014 RMK A01 T10031008  RH  097%=      5-min Rain = 0
KPA1 141903Z 34012KT M00/M01 A3014 RMK A01 T10031008  RH  097%=      5-min Rain = 0
KPA1 141904Z 34010KT M00/M01 A3014 RMK A01 T10031008  RH  097%=      5-min Rain = 0
KPA1 141905Z 34012KT M00/M01 A3014 RMK A01 T10031008  RH  097%=      5-min Rain = 0
KPA1 141906Z 34013KT M00/M01 A3014 RMK A01 T10031008  RH  097%=      5-min Rain = 0
KPA1 141907Z 34012KT M00/M01 A3014 RMK A01 T10031008  RH  097%=      5-min Rain = 0
KPA1 141908Z 33012KT M00/M01 A3014 RMK A01 T10031008  RH  097%=      5-min Rain = 0
KPA1 141909Z 34013KT M00/M01 A3014 RMK A01 T10031008  RH  097%=      5-min Rain = 0
KPA1 141910Z 34015KT M00/M01 A3014 RMK A01 T10031008  RH  097%=      5-min Rain = 0
KPA1 141911Z 34013KT M00/M01 A3014 RMK A01 T10031008  RH  097%=      5-min Rain = 0
KPA1 141912Z 34013KT M00/M01 A3014 RMK A01 T10031008  RH  097%=      5-min Rain = 0
KPA1 141913Z 34013KT M00/M01 A3014 RMK A01 T10041009  RH  097%=      5-min Rain = 0
KPA1 141914Z 34014KT M00/M01 A3014 RMK A01 T10041009  RH  097%=      5-min Rain = 0
KPA1 141915Z 34013KT M00/M01 A3014 RMK A01 T10041008  RH  097%=      5-min Rain = 0
KPA1 141916Z 34013KT M00/M01 A3014 RMK A01 T10041008  RH  097%=      5-min Rain = 0
KPA1 141917Z 34016KT M00/M01 A3013 RMK A01 T10041009  RH  097%=      5-min Rain = 0
KPA1 141918Z 34017KT M00/M01 A3013 RMK A01 T10041009  RH  096%=      5-min Rain = 0.01
KPA1 141919Z 34014KT M00/M01 A3013 RMK A01 T10041009  RH  096%=      5-min Rain = 0
KPA1 141920Z 33016G21KT M00/M01 A3013 RMK A01 T10041009  RH  096%=      5-min Rain = 0
KPA1 141921Z 34015KT M00/M01 A3013 RMK A01 T10041009  RH  096%=      5-min Rain = 0
KPA1 141922Z 34015KT M00/M01 A3014 RMK A01 T10041009  RH  096%=      5-min Rain = 0
KPA1 141923Z 34014KT M00/M01 A3013 RMK A01 T10031009  RH  096%=      5-min Rain = 0
KPA1 141924Z 34013KT M00/M01 A3013 RMK A01 T10031009  RH  096%=      5-min Rain = 0
KPA1 141925Z 34015KT M00/M01 A3013 RMK A01 T10031009  RH  096%=      5-min Rain = 0
KPA1 141926Z 34015KT M00/M01 A3013 RMK A01 T10031009  RH  096%=      5-min Rain = 0
KPA1 141927Z 34015G21KT M00/M01 A3013 RMK A01 T10031009  RH  096%=      5-min Rain = 0
KPA1 141928Z 33017KT M00/M01 A3013 RMK A01 T10031009  RH  096%=      5-min Rain = 0
KPA1 141929Z 33016KT M00/M01 A3013 RMK A01 T10031009  RH  096%=      5-min Rain = 0
KPA1 141930Z 34014KT M00/M01 A3013 RMK A01 T10031009  RH  096%=      5-min Rain = 0
KPA1 141931Z 34012KT M00/M01 A3013 RMK A01 T10031009  RH  096%=      5-min Rain = 0
KPA1 141932Z 34012KT M00/M01 A3013 RMK A01 T10031009  RH  096%=      5-min Rain = 0
KPA1 141933Z 34014KT M00/M01 A3013 RMK A01 T10021008  RH  096%=      5-min Rain = 0
KPA1 141934Z 33015KT M00/M01 A3013 RMK A01 T10021008  RH  096%=      5-min Rain = 0
KPA1 141935Z 34014KT M00/M01 A3013 RMK A01 T10021008  RH  096%=      5-min Rain = 0.01
KPA1 141936Z 33014KT M00/M01 A3013 RMK A01 T10021008  RH  096%=      5-min Rain = 0
KPA1 141937Z 34013KT M00/M01 A3013 RMK A01 T10021008  RH  096%=      5-min Rain = 0
KPA1 141938Z 33012KT M00/M01 A3013 RMK A01 T10021008  RH  096%=      5-min Rain = 0
KPA1 141939Z 33011KT M00/M01 A3013 RMK A01 T10011007  RH  096%=      5-min Rain = 0
KPA1 141940Z 33013KT M00/M01 A3012 RMK A01 T10011008  RH  096%=      5-min Rain = 0
KPA1 141941Z 34016G21KT M00/M01 A3013 RMK A01 T10021008  RH  096%=      5-min Rain = 0
KPA1 141942Z 33017KT M00/M01 A3013 RMK A01 T10011008  RH  095%=      5-min Rain = 0
KPA1 141943Z 33015KT M00/M01 A3013 RMK A01 T10011008  RH  095%=      5-min Rain = 0.01
KPA1 141944Z 33016KT 00/01 A3013 RMK A01 T00-000-8  RH  095%=      5-min Rain = 0
KPA1 141945Z 33016KT 00/01 A3012 RMK A01 T00-000-8  RH  095%=      5-min Rain = 0
KPA1 141946Z 34014KT 00/01 A3012 RMK A01 T00-000-8  RH  095%=      5-min Rain = 0
KPA1 141947Z 34013KT 00/01 A3013 RMK A01 T00-000-8  RH  095%=      5-min Rain = 0
KPA1 141948Z 33014KT 00/01 A3012 RMK A01 T00-000-8  RH  095%=      5-min Rain = 0
KPA1 141949Z 33014KT 00/01 A3012 RMK A01 T00-000-8  RH  095%=      5-min Rain = 0
KPA1 141950Z 33017KT 00/01 A3012 RMK A01 T00-000-8  RH  095%=      5-min Rain = 0
KPA1 141951Z 34015KT 00/01 A3012 RMK A01 T000000-8  RH  094%=      5-min Rain = 0.01
KPA1 141952Z 35015KT 00/M01 A3012 RMK A01 T00011008  RH  094%=      5-min Rain = 0
KPA1 141953Z 34016KT 00/M01 A3012 RMK A01 T00011009  RH  093%=      5-min Rain = 0
KPA1 141954Z 34015KT 00/M01 A3012 RMK A01 T00021009  RH  093%=      5-min Rain = 0
KPA1 141955Z 34014KT 00/M01 A3012 RMK A01 T00021009  RH  093%=      5-min Rain = 0
KPA1 141956Z 34014KT 00/M01 A3012 RMK A01 T00011009  RH  093%=      5-min Rain = 0
KPA1 141957Z 34015G21KT 00/M01 A3012 RMK A01 T00021009  RH  093%=      5-min Rain = 0
KPA1 141958Z 34018G23KT 00/M01 A3012 RMK A01 T00021009  RH  092%=      5-min Rain = 0
KPA1 141959Z 34017KT 00/M01 A3012 RMK A01 T00031010  RH  092%=      5-min Rain = 0
KPA1 142000Z 34017KT 00/M01 A3012 RMK A01 T00031010  RH  091%=      5-min Rain = 0
KPA1 142001Z 35014KT 00/M01 A3012 RMK A01 T00031010  RH  091%=      5-min Rain = 0.01
KPA1 142002Z 34016KT 00/M01 A3012 RMK A01 T00031011  RH  090%=      5-min Rain = 0
KPA1 142003Z 35016KT 00/M01 A3012 RMK A01 T00031010  RH  090%=      5-min Rain = 0
KPA1 142004Z 35016KT 00/M01 A3012 RMK A01 T00031011  RH  090%=      5-min Rain = 0
KPA1 142005Z 36019KT 00/M01 A3012 RMK A01 T00031011  RH  090%=      5-min Rain = 0
KPA1 142006Z 36021KT 00/M01 A3012 RMK A01 T00031012  RH  090%=      5-min Rain = 0
KPA1 142007Z 36020G25KT 00/M01 A3012 RMK A01 T00031013  RH  089%=      5-min Rain = 0
KPA1 142008Z 35016G22KT 00/M01 A3012 RMK A01 T00031013  RH  089%=      5-min Rain = 0
KPA1 142009Z 35020KT 00/M01 A3012 RMK A01 T00031013  RH  089%=      5-min Rain = 0.01
KPA1 142010Z 36020KT 00/M01 A3012 RMK A01 T00031013  RH  089%=      5-min Rain = 0
KPA1 142011Z 00020KT 00/M01 A3012 RMK A01 T00031013  RH  089%=      5-min Rain = 0
KPA1 142012Z 36018KT 00/M01 A3012 RMK A01 T00031013  RH  089%=      5-min Rain = 0
KPA1 142013Z 36019KT 00/M01 A3012 RMK A01 T00031013  RH  090%=      5-min Rain = 0
KPA1 142014Z 36017KT 00/M01 A3012 RMK A01 T00021013  RH  090%=      5-min Rain = 0
KPA1 142015Z 00015KT 00/M01 A3012 RMK A01 T00021012  RH  090%=      5-min Rain = 0
KPA1 142016Z 36015KT 00/M01 A3012 RMK A01 T00021012  RH  090%=      5-min Rain = 0
KPA1 142017Z 35016KT 00/M01 A3012 RMK A01 T00031011  RH  090%=      5-min Rain = 0.01
KPA1 142018Z 35014KT 00/M01 A3012 RMK A01 T00021011  RH  090%=      5-min Rain = 0
KPA1 142019Z 36017KT 00/M01 A3012 RMK A01 T00031011  RH  090%=      5-min Rain = 0
KPA1 142020Z 35015KT 00/M01 A3012 RMK A01 T00021012  RH  090%=      5-min Rain = 0
KPA1 142021Z 36016KT 00/M01 A3012 RMK A01 T00031012  RH  090%=      5-min Rain = 0
KPA1 142022Z 35016KT 00/M01 A3012 RMK A01 T00031012  RH  090%=      5-min Rain = 0.01
KPA1 142023Z 35017G22KT 00/M01 A3012 RMK A01 T00031012  RH  090%=      5-min Rain = 0
KPA1 142024Z 36016KT 00/M01 A3012 RMK A01 T00031012  RH  090%=      5-min Rain = 0
KPA1 142025Z 00017KT 00/M01 A3012 RMK A01 T00041011  RH  090%=      5-min Rain = 0
KPA1 142026Z 36014KT 00/M01 A3012 RMK A01 T00041011  RH  090%=      5-min Rain = 0
KPA1 142027Z 36015G20KT 00/M01 A3012 RMK A01 T00041011  RH  090%=      5-min Rain = 0
KPA1 142028Z 00016KT 00/M01 A3012 RMK A01 T00041011  RH  090%=      5-min Rain = 0.01
KPA1 142029Z 01016KT 00/M01 A3012 RMK A01 T00041011  RH  090%=      5-min Rain = 0
KPA1 142030Z 00016KT 00/M01 A3012 RMK A01 T00041011  RH  090%=      5-min Rain = 0
KPA1 142031Z 01013KT 00/M01 A3012 RMK A01 T00041011  RH  090%=      5-min Rain = 0
KPA1 142032Z 01015KT 01/M01 A3012 RMK A01 T00051010  RH  090%=      5-min Rain = 0
KPA1 142033Z 01015KT 01/M01 A3012 RMK A01 T00051010  RH  090%=      5-min Rain = 0
KPA1 142034Z 01015KT 01/M01 A3012 RMK A01 T00051010  RH  090%=      5-min Rain = 0
KPA1 142035Z 01014KT 01/M01 A3012 RMK A01 T00051010  RH  090%=      5-min Rain = 0
KPA1 142036Z 01012KT 01/M01 A3012 RMK A01 T00051009  RH  090%=      5-min Rain = 0
KPA1 142037Z 02014KT 01/M01 A3012 RMK A01 T00051009  RH  090%=      5-min Rain = 0
KPA1 142038Z 01016G21KT 01/M01 A3012 RMK A01 T00051009  RH  090%=      5-min Rain = 0
KPA1 142039Z 00018KT 01/M01 A3012 RMK A01 T00051010  RH  090%=      5-min Rain = 0
KPA1 142040Z 36016KT 01/M01 A3012 RMK A01 T00051010  RH  089%=      5-min Rain = 0
KPA1 142041Z 36016G21KT 01/M01 A3012 RMK A01 T00051011  RH  089%=      5-min Rain = 0
KPA1 142042Z 01017KT 01/M01 A3012 RMK A01 T00051011  RH  089%=      5-min Rain = 0
KPA1 142043Z 00017KT 01/M01 A3012 RMK A01 T00061011  RH  089%=      5-min Rain = 0
KPA1 142044Z 00015KT 01/M01 A3012 RMK A01 T00061011  RH  088%=      5-min Rain = 0
KPA1 142045Z 00016KT 01/M01 A3012 RMK A01 T00051012  RH  088%=      5-min Rain = 0
KPA1 142046Z 00014KT 01/M01 A3012 RMK A01 T00051012  RH  088%=      5-min Rain = 0
KPA1 142047Z 00014KT 01/M01 A3012 RMK A01 T00061012  RH  088%=      5-min Rain = 0
KPA1 142048Z 00015KT 01/M01 A3012 RMK A01 T00061012  RH  088%=      5-min Rain = 0
KPA1 142049Z 36014KT 01/M01 A3012 RMK A01 T00061013  RH  087%=      5-min Rain = 0
KPA1 142050Z 00015KT 01/M01 A3012 RMK A01 T00061013  RH  087%=      5-min Rain = 0
KPA1 142051Z 36013KT 01/M01 A3012 RMK A01 T00061014  RH  086%=      5-min Rain = 0
KPA1 142052Z 00011KT 01/M01 A3012 RMK A01 T00071014  RH  086%=      5-min Rain = 0
KPA1 142053Z 00012KT 01/M01 A3012 RMK A01 T00071014  RH  086%=      5-min Rain = 0
KPA1 142054Z 00012KT 01/M01 A3012 RMK A01 T00071013  RH  086%=      5-min Rain = 0
KPA1 142055Z 35011KT 01/M01 A3012 RMK A01 T00081013  RH  086%=      5-min Rain = 0
KPA1 142056Z 00011KT 01/M01 A3012 RMK A01 T00081013  RH  086%=      5-min Rain = 0
KPA1 142057Z 00015KT 01/M01 A3012 RMK A01 T00081013  RH  085%=      5-min Rain = 0
KPA1 142058Z 36013G18KT 01/M01 A3012 RMK A01 T00091014  RH  084%=      5-min Rain = 0
KPA1 142059Z 36014KT 01/M02 A3012 RMK A01 T00101015  RH  084%=      5-min Rain = 0
KPA1 142100Z 35014KT 01/M02 A3012 RMK A01 T00101015  RH  083%=      5-min Rain = 0
KPA1 142101Z 36016KT 01/M02 A3012 RMK A01 T00111015  RH  083%=      5-min Rain = 0
KPA1 142102Z 36017KT 01/M02 A3012 RMK A01 T00111016  RH  082%=      5-min Rain = 0
KPA1 142103Z 35015KT 01/M02 A3012 RMK A01 T00121016  RH  082%=      5-min Rain = 0
KPA1 142104Z 35015KT 01/M02 A3012 RMK A01 T00121016  RH  082%=      5-min Rain = 0
KPA1 142105Z 35016KT 01/M02 A3011 RMK A01 T00121015  RH  082%=      5-min Rain = 0
KPA1 142106Z 34014KT 01/M02 A3011 RMK A01 T00121015  RH  082%=      5-min Rain = 0
KPA1 142107Z 34012KT 01/M01 A3011 RMK A01 T00121014  RH  083%=      5-min Rain = 0
KPA1 142108Z 34017KT 01/M01 A3011 RMK A01 T00121014  RH  083%=      5-min Rain = 0
KPA1 142109Z 35018KT 01/M01 A3011 RMK A01 T00121014  RH  083%=      5-min Rain = 0
KPA1 142110Z 34015KT 01/M02 A3011 RMK A01 T00121015  RH  082%=      5-min Rain = 0.01
KPA1 142111Z 34015KT 01/M01 A3011 RMK A01 T00121014  RH  083%=      5-min Rain = 0
KPA1 142112Z 34013KT 01/M01 A3011 RMK A01 T00121013  RH  083%=      5-min Rain = 0
KPA1 142113Z 33013G19KT 01/M01 A3011 RMK A01 T00121013  RH  084%=      5-min Rain = 0
KPA1 142114Z 34015KT 01/M01 A3011 RMK A01 T00121013  RH  084%=      5-min Rain = 0
KPA1 142115Z 33016KT 01/M01 A3011 RMK A01 T00121013  RH  083%=      5-min Rain = 0
KPA1 142116Z 34015KT 01/M01 A3011 RMK A01 T00131014  RH  082%=      5-min Rain = 0
KPA1 142117Z 34016KT 01/M01 A3011 RMK A01 T00131014  RH  082%=      5-min Rain = 0
KPA1 142118Z 34014KT 01/M01 A3011 RMK A01 T00141013  RH  082%=      5-min Rain = 0
KPA1 142119Z 34014KT 01/M01 A3011 RMK A01 T00141014  RH  082%=      5-min Rain = 0
KPA1 142120Z 34012KT 01/M01 A3011 RMK A01 T00141013  RH  082%=      5-min Rain = 0
KPA1 142121Z 34012KT 02/M01 A3011 RMK A01 T00151013  RH  082%=      5-min Rain = 0
KPA1 142122Z 35013KT 02/M01 A3011 RMK A01 T00151013  RH  082%=      5-min Rain = 0
KPA1 142123Z 36013KT 02/M01 A3011 RMK A01 T00161013  RH  081%=      5-min Rain = 0
KPA1 142124Z 35012KT 02/M01 A3011 RMK A01 T00161014  RH  081%=      5-min Rain = 0
KPA1 142125Z 35011KT 02/M01 A3011 RMK A01 T00161014  RH  080%=      5-min Rain = 0
KPA1 142126Z 35014KT 02/M01 A3011 RMK A01 T00171014  RH  080%=      5-min Rain = 0
KPA1 142127Z 34016KT 02/M01 A3011 RMK A01 T00171014  RH  080%=      5-min Rain = 0
KPA1 142128Z 36013KT 02/M02 A3011 RMK A01 T00181015  RH  079%=      5-min Rain = 0
KPA1 142129Z 35012KT 02/M02 A3011 RMK A01 T00181015  RH  079%=      5-min Rain = 0
KPA1 142130Z 36015KT 02/M01 A3011 RMK A01 T00191014  RH  079%=      5-min Rain = 0
KPA1 142131Z 36012KT 02/M01 A3011 RMK A01 T00181014  RH  079%=      5-min Rain = 0
KPA1 142132Z 36012KT 02/M01 A3011 RMK A01 T00181013  RH  080%=      5-min Rain = 0
KPA1 142133Z 00012KT 02/M01 A3011 RMK A01 T00181014  RH  079%=      5-min Rain = 0
KPA1 142134Z 00011KT 02/M01 A3011 RMK A01 T00181014  RH  079%=      5-min Rain = 0
KPA1 142135Z 36010KT 02/M01 A3011 RMK A01 T00191013  RH  079%=      5-min Rain = 0
KPA1 142136Z 36010KT 02/M01 A3011 RMK A01 T00191013  RH  080%=      5-min Rain = 0
KPA1 142137Z 35010KT 02/M01 A3011 RMK A01 T00181013  RH  079%=      5-min Rain = 0
KPA1 142138Z 00010KT 02/M01 A3011 RMK A01 T00191014  RH  079%=      5-min Rain = 0
KPA1 142139Z 35011KT 02/M01 A3011 RMK A01 T00181014  RH  079%=      5-min Rain = 0
KPA1 142140Z 35011KT 02/M02 A3011 RMK A01 T00181015  RH  079%=      5-min Rain = 0
KPA1 142141Z 35011KT 02/M02 A3011 RMK A01 T00181016  RH  078%=      5-min Rain = 0
KPA1 142142Z 34011KT 02/M02 A301 RMK A01 T00191016  RH  078%=      5-min Rain = 0
KPA1 142143Z 34010KT 02/M02 A301 RMK A01 T00191016  RH  078%=      5-min Rain = 0
KPA1 142144Z 34010KT 02/M02 A301 RMK A01 T00191016  RH  078%=      5-min Rain = 0
KPA1 142145Z 34011KT 02/M02 A301 RMK A01 T00191016  RH  078%=      5-min Rain = 0
KPA1 142146Z 34010KT 02/M02 A301 RMK A01 T00191015  RH  078%=      5-min Rain = 0
KPA1 142147Z 35010KT 02/M01 A3011 RMK A01 T00191014  RH  079%=      5-min Rain = 0
KPA1 142148Z 34010KT 02/M01 A3011 RMK A01 T00191014  RH  079%=      5-min Rain = 0
KPA1 142149Z 34009KT 02/M01 A3011 RMK A01 T00191014  RH  079%=      5-min Rain = 0
KPA1 142150Z 35009KT 02/M01 A3011 RMK A01 T00191014  RH  079%=      5-min Rain = 0
KPA1 142151Z 34011KT 02/M01 A301 RMK A01 T00191013  RH  079%=      5-min Rain = 0
KPA1 142152Z 34009KT 02/M01 A301 RMK A01 T00191014  RH  079%=      5-min Rain = 0
KPA1 142153Z 34009KT 02/M01 A301 RMK A01 T00191014  RH  079%=      5-min Rain = 0
KPA1 142154Z 34008KT 02/M01 A301 RMK A01 T00191013  RH  079%=      5-min Rain = 0
KPA1 142155Z 34009KT 02/M01 A301 RMK A01 T00191013  RH  079%=      5-min Rain = 0
KPA1 142156Z 34009KT 02/M01 A301 RMK A01 T00191013  RH  079%=      5-min Rain = 0
KPA1 142157Z 34009KT 02/M01 A301 RMK A01 T00191014  RH  079%=      5-min Rain = 0
KPA1 142158Z 34009KT 02/M02 A301 RMK A01 T00191015  RH  079%=      5-min Rain = 0
KPA1 142159Z 35009KT 02/M01 A301 RMK A01 T00191013  RH  080%=      5-min Rain = 0
KPA1 142200Z 35008KT 02/M01 A301 RMK A01 T00181011  RH  081%=      5-min Rain = 0
KPA1 142201Z 35009KT 02/M01 A301 RMK A01 T00181010  RH  082%=      5-min Rain = 0
KPA1 142202Z 34009KT 02/M01 A301 RMK A01 T00171009  RH  082%=      5-min Rain = 0
KPA1 142203Z 34009KT 02/M01 A301 RMK A01 T00171009  RH  082%=      5-min Rain = 0
KPA1 142204Z 34009KT 02/M01 A301 RMK A01 T00171009  RH  083%=      5-min Rain = 0
KPA1 142205Z 34009KT 02/M01 A301 RMK A01 T00171010  RH  082%=      5-min Rain = 0
KPA1 142206Z 34009KT 02/M01 A301 RMK A01 T00181009  RH  082%=      5-min Rain = 0
KPA1 142207Z 34009KT 02/M01 A301 RMK A01 T00181009  RH  082%=      5-min Rain = 0
KPA1 142208Z 34010KT 02/M01 A301 RMK A01 T00181009  RH  082%=      5-min Rain = 0
KPA1 142209Z 34009KT 02/M01 A301 RMK A01 T00191009  RH  082%=      5-min Rain = 0
KPA1 142210Z 34009KT 02/M01 A301 RMK A01 T00191009  RH  082%=      5-min Rain = 0
KPA1 142211Z 34009KT 02/M01 A301 RMK A01 T00191009  RH  082%=      5-min Rain = 0
KPA1 142212Z 34009KT 02/M01 A301 RMK A01 T00191009  RH  082%=      5-min Rain = 0
KPA1 142213Z 34007KT 02/M01 A301 RMK A01 T00191009  RH  082%=      5-min Rain = 0
KPA1 142214Z 34008KT 02/M01 A301 RMK A01 T00191009  RH  082%=      5-min Rain = 0
KPA1 142215Z 34009KT 02/M01 A301 RMK A01 T00191008  RH  082%=      5-min Rain = 0
KPA1 142216Z 35008KT 02/M01 A301 RMK A01 T00191008  RH  082%=      5-min Rain = 0
KPA1 142217Z 34009KT 02/M01 A301 RMK A01 T00201009  RH  082%=      5-min Rain = 0
KPA1 142218Z 34009KT 02/M01 A301 RMK A01 T00201008  RH  081%=      5-min Rain = 0
KPA1 142219Z 35008KT 02/M01 A301 RMK A01 T00201009  RH  081%=      5-min Rain = 0
KPA1 142220Z 34009KT 02/M01 A301 RMK A01 T00201008  RH  081%=      5-min Rain = 0
KPA1 142221Z 34010KT 02/M01 A301 RMK A01 T00211009  RH  081%=      5-min Rain = 0
KPA1 142222Z 35009KT 02/M01 A301 RMK A01 T00211009  RH  081%=      5-min Rain = 0
KPA1 142223Z 35008KT 02/M01 A301 RMK A01 T00221008  RH  080%=      5-min Rain = 0
KPA1 142224Z 35008KT 02/M01 A301 RMK A01 T00221008  RH  081%=      5-min Rain = 0
KPA1 142225Z 35009KT 02/M01 A301 RMK A01 T00221008  RH  081%=      5-min Rain = 0
KPA1 142226Z 35008KT 02/M01 A301 RMK A01 T00211009  RH  081%=      5-min Rain = 0
KPA1 142227Z 35009KT 02/M01 A301 RMK A01 T00221008  RH  081%=      5-min Rain = 0
KPA1 142228Z 35008KT 02/M01 A301 RMK A01 T00221009  RH  080%=      5-min Rain = 0
KPA1 142229Z 35007KT 02/M01 A301 RMK A01 T00221010  RH  079%=      5-min Rain = 0
KPA1 142230Z 35008KT 02/M01 A301 RMK A01 T00221011  RH  079%=      5-min Rain = 0
KPA1 142231Z 35009KT 02/M01 A301 RMK A01 T00231013  RH  077%=      5-min Rain = 0
KPA1 142232Z 35010KT 02/M01 A301 RMK A01 T00241014  RH  076%=      5-min Rain = 0
KPA1 142233Z 35009KT 03/M01 A301 RMK A01 T00251014  RH  075%=      5-min Rain = 0
KPA1 142234Z 34011KT 03/M02 A301 RMK A01 T00261015  RH  074%=      5-min Rain = 0
KPA1 142235Z 35011KT 03/M02 A301 RMK A01 T00271016  RH  073%=      5-min Rain = 0
KPA1 142236Z 34009KT 03/M02 A301 RMK A01 T00281016  RH  073%=      5-min Rain = 0
KPA1 142237Z 35010KT 03/M02 A301 RMK A01 T00281016  RH  072%=      5-min Rain = 0
KPA1 142238Z 35008KT 03/M02 A301 RMK A01 T00291017  RH  072%=      5-min Rain = 0
KPA1 142239Z 34008KT 03/M02 A301 RMK A01 T00301016  RH  072%=      5-min Rain = 0
KPA1 142240Z 35009KT 03/M02 A301 RMK A01 T00291016  RH  072%=      5-min Rain = 0
KPA1 142241Z 35009KT 03/M02 A301 RMK A01 T00291017  RH  072%=      5-min Rain = 0
KPA1 142242Z 35011KT 03/M02 A301 RMK A01 T00301017  RH  071%=      5-min Rain = 0
KPA1 142243Z 35009KT 03/M02 A301 RMK A01 T00311017  RH  071%=      5-min Rain = 0
KPA1 142244Z 35009KT 03/M02 A301 RMK A01 T00311017  RH  071%=      5-min Rain = 0
KPA1 142245Z 35010KT 03/M02 A301 RMK A01 T00311018  RH  070%=      5-min Rain = 0
KPA1 142246Z 36010KT 03/M02 A301 RMK A01 T00321018  RH  070%=      5-min Rain = 0
KPA1 142247Z 36009KT 03/M02 A301 RMK A01 T00321017  RH  070%=      5-min Rain = 0
KPA1 142248Z 36011KT 03/M02 A301 RMK A01 T00321017  RH  070%=      5-min Rain = 0
KPA1 142249Z 36011KT 03/M02 A301 RMK A01 T00331018  RH  069%=      5-min Rain = 0
KPA1 142250Z 36010KT 03/M02 A301 RMK A01 T00331018  RH  069%=      5-min Rain = 0
KPA1 142251Z 36011KT 03/M02 A301 RMK A01 T00341017  RH  069%=      5-min Rain = 0
KPA1 142252Z 35011KT 03/M02 A301 RMK A01 T00331018  RH  069%=      5-min Rain = 0
KPA1 142253Z 35010KT 03/M02 A301 RMK A01 T00341019  RH  069%=      5-min Rain = 0
KPA1 142254Z 35011KT 03/M02 A301 RMK A01 T00341018  RH  069%=      5-min Rain = 0
KPA1 142255Z 35010KT 03/M02 A301 RMK A01 T00341018  RH  069%=      5-min Rain = 0
KPA1 142256Z 35010KT 03/M02 A301 RMK A01 T00341018  RH  069%=      5-min Rain = 0
KPA1 142257Z 35011KT 03/M02 A301 RMK A01 T00341018  RH  069%=      5-min Rain = 0
KPA1 142258Z 34010KT 03/M02 A301 RMK A01 T00341019  RH  069%=      5-min Rain = 0
KPA1 142259Z 34011KT 03/M02 A301 RMK A01 T00341019  RH  068%=      5-min Rain = 0
KPA1 142300Z 34011KT 03/M02 A301 RMK A01 T00341020  RH  068%=      5-min Rain = 0
KPA1 142301Z 34010KT 03/M02 A301 RMK A01 T00341019  RH  068%=      5-min Rain = 0
KPA1 142302Z 34010KT 03/M02 A301 RMK A01 T00341020  RH  068%=      5-min Rain = 0
KPA1 142303Z 34010KT 03/M02 A301 RMK A01 T00331021  RH  068%=      5-min Rain = 0
KPA1 142304Z 34011KT 03/M02 A301 RMK A01 T00331021  RH  068%=      5-min Rain = 0
KPA1 142305Z 34011KT 03/M02 A301 RMK A01 T00331021  RH  067%=      5-min Rain = 0
KPA1 142306Z 34010KT 03/M02 A301 RMK A01 T00331022  RH  067%=      5-min Rain = 0
KPA1 142307Z 34011KT 03/M02 A301 RMK A01 T00331021  RH  067%=      5-min Rain = 0
KPA1 142308Z 34011KT 03/M02 A301 RMK A01 T00331021  RH  068%=      5-min Rain = 0
KPA1 142309Z 34010KT 03/M02 A301 RMK A01 T00331021  RH  068%=      5-min Rain = 0
KPA1 142310Z 34009KT 03/M02 A301 RMK A01 T00321020  RH  069%=      5-min Rain = 0
KPA1 142311Z 34010KT 03/M02 A301 RMK A01 T00321020  RH  069%=      5-min Rain = 0
KPA1 142312Z 34009KT 03/M02 A301 RMK A01 T00321019  RH  070%=      5-min Rain = 0
KPA1 142313Z 34009KT 03/M02 A301 RMK A01 T00311019  RH  070%=      5-min Rain = 0
KPA1 142314Z 33009KT 03/M02 A301 RMK A01 T00311019  RH  070%=      5-min Rain = 0
KPA1 142315Z 33009KT 03/M02 A301 RMK A01 T00311018  RH  070%=      5-min Rain = 0
KPA1 142316Z 34009KT 03/M02 A301 RMK A01 T00311018  RH  070%=      5-min Rain = 0
KPA1 142317Z 33008KT 03/M02 A301 RMK A01 T00311018  RH  070%=      5-min Rain = 0
KPA1 142318Z 34009KT 03/M02 A301 RMK A01 T00311019  RH  070%=      5-min Rain = 0
KPA1 142319Z 33009KT 03/M02 A301 RMK A01 T00321018  RH  070%=      5-min Rain = 0
KPA1 142320Z 34008KT 03/M02 A301 RMK A01 T00321018  RH  070%=      5-min Rain = 0
KPA1 142321Z 34009KT 03/M02 A301 RMK A01 T00311017  RH  071%=      5-min Rain = 0
KPA1 142322Z 34009KT 03/M02 A301 RMK A01 T00311017  RH  071%=      5-min Rain = 0
KPA1 142323Z 35009KT 03/M02 A301 RMK A01 T00311018  RH  070%=      5-min Rain = 0
KPA1 142324Z 34009KT 03/M02 A301 RMK A01 T00321018  RH  070%=      5-min Rain = 0
KPA1 142325Z 34009KT 03/M02 A301 RMK A01 T00321018  RH  070%=      5-min Rain = 0
KPA1 142326Z 34010KT 03/M02 A301 RMK A01 T00321019  RH  069%=      5-min Rain = 0
KPA1 142327Z 34010KT 03/M02 A301 RMK A01 T00331019  RH  069%=      5-min Rain = 0
KPA1 142328Z 34009KT 03/M02 A301 RMK A01 T00331019  RH  069%=      5-min Rain = 0
KPA1 142329Z 34009KT 03/M02 A301 RMK A01 T00331018  RH  069%=      5-min Rain = 0
KPA1 142330Z 34010KT 03/M02 A301 RMK A01 T00331018  RH  069%=      5-min Rain = 0
KPA1 142331Z 34010KT 03/M02 A3011 RMK A01 T00331018  RH  069%=      5-min Rain = 0
KPA1 142332Z 34010KT 03/M02 A3011 RMK A01 T00321019  RH  069%=      5-min Rain = 0
KPA1 142333Z 34010KT 03/M02 A301 RMK A01 T00331019  RH  069%=      5-min Rain = 0
KPA1 142334Z 34008KT 03/M02 A3011 RMK A01 T00331019  RH  069%=      5-min Rain = 0
KPA1 142335Z 34010KT 03/M02 A3011 RMK A01 T00331018  RH  070%=      5-min Rain = 0
KPA1 142336Z 34010KT 03/M02 A3011 RMK A01 T00331018  RH  069%=      5-min Rain = 0
KPA1 142337Z 34007KT 03/M02 A3011 RMK A01 T00331018  RH  069%=      5-min Rain = 0
KPA1 142338Z 34008KT 03/M02 A3011 RMK A01 T00321018  RH  070%=      5-min Rain = 0
KPA1 142339Z 34009KT 03/M02 A3011 RMK A01 T00321017  RH  070%=      5-min Rain = 0
KPA1 142340Z 34009KT 03/M02 A3011 RMK A01 T00311018  RH  070%=      5-min Rain = 0
KPA1 142341Z 34009KT 03/M02 A3011 RMK A01 T00321017  RH  070%=      5-min Rain = 0
KPA1 142342Z 34008KT 03/M02 A3011 RMK A01 T00311017  RH  070%=      5-min Rain = 0
KPA1 142343Z 34008KT 03/M02 A3011 RMK A01 T00321016  RH  071%=      5-min Rain = 0
KPA1 142344Z 34008KT 03/M02 A3011 RMK A01 T00311016  RH  071%=      5-min Rain = 0
KPA1 142345Z 34008KT 03/M02 A3011 RMK A01 T00311015  RH  071%=      5-min Rain = 0
KPA1 142346Z 34009KT 03/M02 A3011 RMK A01 T00311015  RH  072%=      5-min Rain = 0
KPA1 142347Z 34008KT 03/M02 A3011 RMK A01 T00311015  RH  072%=      5-min Rain = 0
KPA1 142348Z 34008KT 03/M02 A3011 RMK A01 T00311015  RH  072%=      5-min Rain = 0
KPA1 142349Z 34008KT 03/M02 A3011 RMK A01 T00311015  RH  072%=      5-min Rain = 0
KPA1 142350Z 34007KT 03/M01 A3011 RMK A01 T00301014  RH  072%=      5-min Rain = 0
KPA1 142351Z 34008KT 03/M02 A3011 RMK A01 T00301015  RH  072%=      5-min Rain = 0
KPA1 142352Z 33008KT 03/M02 A3011 RMK A01 T00301015  RH  072%=      5-min Rain = 0
KPA1 142353Z 34008KT 03/M02 A3011 RMK A01 T00311015  RH  072%=      5-min Rain = 0
KPA1 142354Z 34008KT 03/M02 A3011 RMK A01 T00311015  RH  072%=      5-min Rain = 0
KPA1 142355Z 34008KT 03/M02 A3011 RMK A01 T00311015  RH  072%=      5-min Rain = 0
KPA1 142356Z 34008KT 03/M02 A3011 RMK A01 T00311015  RH  072%=      5-min Rain = 0
KPA1 142357Z 34008KT 03/M02 A3011 RMK A01 T00311015  RH  072%=      5-min Rain = 0
KPA1 142358Z 34009KT 03/M01 A3011 RMK A01 T00311014  RH  072%=      5-min Rain = 0
KPA1 142359Z 34008KT 03/M01 A3011 RMK A01 T00311014  RH  072%=      5-min Rain = 0
KPA1 150000Z 34008KT 03/M02 A3011 RMK A01 T00301015  RH  072%=      5-min Rain = 0
KPA1 150001Z 34008KT 03/M02 A3011 RMK A01 T00311015  RH  072%=      5-min Rain = 0
KPA1 150002Z 34009KT 03/M01 A3011 RMK A01 T00311014  RH  072%=      5-min Rain = 0
KPA1 150003Z 34009KT 03/M02 A3011 RMK A01 T00311015  RH  072%=      5-min Rain = 0
KPA1 150004Z 34008KT 03/M02 A3011 RMK A01 T00321015  RH  071%=      5-min Rain = 0
KPA1 150005Z 34008KT 03/M01 A3011 RMK A01 T00321014  RH  072%=      5-min Rain = 0
KPA1 150006Z 34008KT 03/M02 A3011 RMK A01 T00311015  RH  072%=      5-min Rain = 0
KPA1 150007Z 34009KT 03/M02 A3011 RMK A01 T00321015  RH  071%=      5-min Rain = 0
KPA1 150008Z 34009KT 03/M02 A3011 RMK A01 T00331015  RH  071%=      5-min Rain = 0
KPA1 150009Z 34010KT 03/M02 A3011 RMK A01 T00331015  RH  071%=      5-min Rain = 0
KPA1 150010Z 34008KT 03/M02 A3011 RMK A01 T00331015  RH  071%=      5-min Rain = 0
KPA1 150011Z 34009KT 03/M01 A3011 RMK A01 T00331014  RH  071%=      5-min Rain = 0
KPA1 150012Z 34008KT 03/M01 A3011 RMK A01 T00321014  RH  072%=      5-min Rain = 0
KPA1 150013Z 34008KT 03/M01 A3011 RMK A01 T00321014  RH  072%=      5-min Rain = 0
KPA1 150014Z 34008KT 03/M01 A3011 RMK A01 T00321014  RH  072%=      5-min Rain = 0
KPA1 150015Z 34009KT 03/M01 A3011 RMK A01 T00321014  RH  072%=      5-min Rain = 0
KPA1 150016Z 34008KT 03/M01 A3011 RMK A01 T00331014  RH  071%=      5-min Rain = 0
KPA1 150017Z 34008KT 03/M01 A3011 RMK A01 T00331014  RH  071%=      5-min Rain = 0
KPA1 150018Z 34009KT 03/M01 A3011 RMK A01 T00331014  RH  071%=      5-min Rain = 0
KPA1 150019Z 34008KT 03/M01 A3011 RMK A01 T00331014  RH  071%=      5-min Rain = 0
KPA1 150020Z 34008KT 03/M01 A3011 RMK A01 T00331014  RH  071%=      5-min Rain = 0
KPA1 150021Z 34007KT 03/M01 A3012 RMK A01 T00331013  RH  072%=      5-min Rain = 0
KPA1 150022Z 34008KT 03/M01 A3012 RMK A01 T00321014  RH  072%=      5-min Rain = 0
KPA1 150023Z 34008KT 03/M01 A3012 RMK A01 T00321014  RH  072%=      5-min Rain = 0
KPA1 150024Z 34009KT 03/M01 A3012 RMK A01 T00331014  RH  072%=      5-min Rain = 0
KPA1 150025Z 34009KT 03/M02 A3012 RMK A01 T00331015  RH  071%=      5-min Rain = 0
KPA1 150026Z 34010KT 03/M02 A3012 RMK A01 T00331015  RH  070%=      5-min Rain = 0
KPA1 150027Z 34009KT 03/M02 A3012 RMK A01 T00341015  RH  070%=      5-min Rain = 0
KPA1 150028Z 34008KT 03/M02 A3012 RMK A01 T00341015  RH  070%=      5-min Rain = 0
KPA1 150029Z 34008KT 03/M02 A3012 RMK A01 T00331015  RH  071%=      5-min Rain = 0
KPA1 150030Z 34008KT 03/M02 A3012 RMK A01 T00331015  RH  071%=      5-min Rain = 0
KPA1 150031Z 34007KT 03/M02 A3012 RMK A01 T00331015  RH  071%=      5-min Rain = 0
KPA1 150032Z 34007KT 03/M02 A3012 RMK A01 T00321015  RH  071%=      5-min Rain = 0
KPA1 150033Z 34008KT 03/M02 A3012 RMK A01 T00321015  RH  071%=      5-min Rain = 0
KPA1 150034Z 34008KT 03/M02 A3012 RMK A01 T00321015  RH  071%=      5-min Rain = 0
KPA1 150035Z 34007KT 03/M02 A3012 RMK A01 T00321015  RH  071%=      5-min Rain = 0
KPA1 150036Z 34008KT 03/M02 A3012 RMK A01 T00321016  RH  071%=      5-min Rain = 0
KPA1 150037Z 34008KT 03/M02 A3012 RMK A01 T00321016  RH  071%=      5-min Rain = 0
KPA1 150038Z 34008KT 03/M02 A3012 RMK A01 T00321017  RH  070%=      5-min Rain = 0
KPA1 150039Z 34008KT 03/M02 A3012 RMK A01 T00321017  RH  070%=      5-min Rain = 0
KPA1 150040Z 34007KT 03/M02 A3012 RMK A01 T00321017  RH  070%=      5-min Rain = 0
KPA1 150041Z 34007KT 03/M02 A3012 RMK A01 T00321017  RH  070%=      5-min Rain = 0
KPA1 150042Z 34007KT 03/M02 A3012 RMK A01 T00321018  RH  070%=      5-min Rain = 0
KPA1 150043Z 33007KT 03/M02 A3012 RMK A01 T00311018  RH  070%=      5-min Rain = 0
KPA1 150044Z 33007KT 03/M02 A3013 RMK A01 T00311018  RH  070%=      5-min Rain = 0
KPA1 150045Z 33007KT 03/M02 A3013 RMK A01 T00311018  RH  070%=      5-min Rain = 0
KPA1 150046Z 33007KT 03/M02 A3013 RMK A01 T00311018  RH  070%=      5-min Rain = 0
KPA1 150047Z 33007KT 03/M02 A3013 RMK A01 T00311018  RH  070%=      5-min Rain = 0
KPA1 150048Z 33007KT 03/M02 A3013 RMK A01 T00301018  RH  071%=      5-min Rain = 0
KPA1 150049Z 33007KT 03/M02 A3013 RMK A01 T00301018  RH  071%=      5-min Rain = 0
KPA1 150050Z 33007KT 03/M02 A3013 RMK A01 T00291018  RH  071%=      5-min Rain = 0
KPA1 150051Z 34007KT 03/M02 A3013 RMK A01 T00291018  RH  071%=      5-min Rain = 0
KPA1 150052Z 33007KT 03/M02 A3013 RMK A01 T00281018  RH  071%=      5-min Rain = 0
KPA1 150053Z 33007KT 03/M02 A3013 RMK A01 T00281019  RH  071%=      5-min Rain = 0
KPA1 150054Z 34007KT 03/M02 A3013 RMK A01 T00281018  RH  072%=      5-min Rain = 0
KPA1 150055Z 34007KT 03/M02 A3013 RMK A01 T00281018  RH  072%=      5-min Rain = 0
KPA1 150056Z 34007KT 03/M02 A3013 RMK A01 T00271018  RH  072%=      5-min Rain = 0
KPA1 150057Z 34007KT 03/M02 A3013 RMK A01 T00281019  RH  072%=      5-min Rain = 0
KPA1 150058Z 34006KT 03/M02 A3013 RMK A01 T00281019  RH  071%=      5-min Rain = 0
KPA1 150059Z 34006KT 03/M02 A3013 RMK A01 T00291019  RH  071%=      5-min Rain = 0
KPA1 150100Z 34006KT 03/M02 A3013 RMK A01 T00291019  RH  071%=      5-min Rain = 0
KPA1 150101Z 34006KT 03/M02 A3013 RMK A01 T00291019  RH  071%=      5-min Rain = 0
KPA1 150102Z 33006KT 03/M02 A3013 RMK A01 T00291019  RH  071%=      5-min Rain = 0
KPA1 150103Z 33006KT 03/M02 A3013 RMK A01 T00291018  RH  071%=      5-min Rain = 0
KPA1 150104Z 33005KT 03/M02 A3013 RMK A01 T00281018  RH  072%=      5-min Rain = 0
KPA1 150105Z 33005KT 03/M02 A3013 RMK A01 T00281017  RH  072%=      5-min Rain = 0
KPA1 150106Z 33006KT 03/M02 A3013 RMK A01 T00281017  RH  072%=      5-min Rain = 0
KPA1 150107Z 33006KT 03/M02 A3013 RMK A01 T00281017  RH  072%=      5-min Rain = 0
KPA1 150108Z 33006KT 03/M02 A3013 RMK A01 T00271018  RH  072%=      5-min Rain = 0
KPA1 150109Z 33006KT 03/M02 A3013 RMK A01 T00271018  RH  072%=      5-min Rain = 0
KPA1 150110Z 33006KT 03/M02 A3013 RMK A01 T00271018  RH  072%=      5-min Rain = 0
KPA1 150111Z 33006KT 03/M02 A3013 RMK A01 T00271019  RH  072%=      5-min Rain = 0
KPA1 150112Z 32006KT 03/M02 A3013 RMK A01 T00271019  RH  072%=      5-min Rain = 0
KPA1 150113Z 33006KT 03/M02 A3013 RMK A01 T00271019  RH  072%=      5-min Rain = 0
KPA1 150114Z 33007KT 03/M02 A3014 RMK A01 T00271020  RH  072%=      5-min Rain = 0
KPA1 150115Z 33006KT 03/M02 A3014 RMK A01 T00261020  RH  071%=      5-min Rain = 0
KPA1 150116Z 32006KT 03/M02 A3014 RMK A01 T00261021  RH  071%=      5-min Rain = 0
KPA1 150117Z 32006KT 03/M02 A3014 RMK A01 T00271020  RH  071%=      5-min Rain = 0
KPA1 150118Z 32006KT 03/M02 A3014 RMK A01 T00261020  RH  072%=      5-min Rain = 0
KPA1 150119Z 32005KT 02/M02 A3014 RMK A01 T00241019  RH  073%=      5-min Rain = 0
KPA1 150120Z 31005KT 02/M02 A3014 RMK A01 T00231019  RH  074%=      5-min Rain = 0
KPA1 150121Z 31005KT 02/M02 A3014 RMK A01 T00221018  RH  075%=      5-min Rain = 0
KPA1 150122Z 31004KT 02/M02 A3014 RMK A01 T00211018  RH  075%=      5-min Rain = 0
KPA1 150123Z 30004KT 02/M02 A3014 RMK A01 T00201017  RH  076%=      5-min Rain = 0
KPA1 150124Z 30004KT 02/M02 A3014 RMK A01 T00191016  RH  078%=      5-min Rain = 0
KPA1 150125Z 30004KT 02/M02 A3014 RMK A01 T00171016  RH  078%=      5-min Rain = 0
KPA1 150126Z 30004KT 02/M02 A3014 RMK A01 T00161016  RH  079%=      5-min Rain = 0
KPA1 150127Z 30004KT 02/M02 A3014 RMK A01 T00161016  RH  079%=      5-min Rain = 0
KPA1 150128Z 29004KT 02/M02 A3014 RMK A01 T00151016  RH  080%=      5-min Rain = 0
KPA1 150129Z 30004KT 02/M02 A3014 RMK A01 T00151015  RH  080%=      5-min Rain = 0
KPA1 150130Z 30004KT 02/M02 A3014 RMK A01 T00151015  RH  081%=      5-min Rain = 0
KPA1 150131Z 30004KT 01/M02 A3014 RMK A01 T00141015  RH  081%=      5-min Rain = 0
KPA1 150132Z 31004KT 02/M01 A3014 RMK A01 T00151014  RH  081%=      5-min Rain = 0
KPA1 150133Z 31004KT 02/M01 A3014 RMK A01 T00151014  RH  081%=      5-min Rain = 0
KPA1 150134Z 31003KT 01/M01 A3014 RMK A01 T00141014  RH  081%=      5-min Rain = 0
KPA1 150135Z 31004KT 02/M01 A3014 RMK A01 T00151014  RH  081%=      5-min Rain = 0
KPA1 150136Z 32004KT 01/M02 A3014 RMK A01 T00141015  RH  081%=      5-min Rain = 0
KPA1 150137Z 32004KT 01/M02 A3014 RMK A01 T00141015  RH  081%=      5-min Rain = 0
KPA1 150138Z 32004KT 01/M02 A3015 RMK A01 T00141015  RH  081%=      5-min Rain = 0
KPA1 150139Z 32004KT 01/M02 A3015 RMK A01 T00141015  RH  081%=      5-min Rain = 0
KPA1 150140Z 32004KT 02/M02 A3015 RMK A01 T00151016  RH  080%=      5-min Rain = 0
KPA1 150141Z 33004KT 02/M02 A3015 RMK A01 T00151016  RH  080%=      5-min Rain = 0
KPA1 150142Z 34004KT 02/M02 A3015 RMK A01 T00151016  RH  080%=      5-min Rain = 0
KPA1 150143Z 33004KT 02/M02 A3015 RMK A01 T00151016  RH  080%=      5-min Rain = 0
KPA1 150144Z 33004KT 02/M02 A3015 RMK A01 T00151016  RH  080%=      5-min Rain = 0
KPA1 150145Z 32004KT 01/M02 A3015 RMK A01 T00141016  RH  080%=      5-min Rain = 0
KPA1 150146Z 32004KT 01/M02 A3015 RMK A01 T00141016  RH  081%=      5-min Rain = 0
KPA1 150147Z 31004KT 01/M02 A3015 RMK A01 T00141016  RH  081%=      5-min Rain = 0
KPA1 150148Z 31004KT 01/M02 A3015 RMK A01 T00141016  RH  081%=      5-min Rain = 0
KPA1 150149Z 32004KT 01/M02 A3015 RMK A01 T00131015  RH  081%=      5-min Rain = 0
KPA1 150150Z 32004KT 01/M02 A3015 RMK A01 T00121015  RH  082%=      5-min Rain = 0
KPA1 150151Z 33004KT 01/M02 A3015 RMK A01 T00121016  RH  082%=      5-min Rain = 0
KPA1 150152Z 33004KT 01/M02 A3015 RMK A01 T00111016  RH  082%=      5-min Rain = 0
KPA1 150153Z 33004KT 01/M02 A3015 RMK A01 T00111017  RH  082%=      5-min Rain = 0
KPA1 150154Z 33004KT 01/M02 A3015 RMK A01 T00111018  RH  081%=      5-min Rain = 0
KPA1 150155Z 33004KT 01/M02 A3015 RMK A01 T00121018  RH  080%=      5-min Rain = 0
KPA1 150156Z 34004KT 01/M02 A3015 RMK A01 T00131018  RH  080%=      5-min Rain = 0
KPA1 150157Z 34004KT 01/M02 A3015 RMK A01 T00131018  RH  080%=      5-min Rain = 0
KPA1 150158Z 33004KT 01/M02 A3015 RMK A01 T00131018  RH  080%=      5-min Rain = 0
KPA1 150159Z 32004KT 01/M02 A3015 RMK A01 T00141017  RH  080%=      5-min Rain = 0
KPA1 150200Z 32005KT 01/M02 A3015 RMK A01 T00141018  RH  079%=      5-min Rain = 0
KPA1 150201Z 32005KT 01/M02 A3015 RMK A01 T00131018  RH  080%=      5-min Rain = 0
KPA1 150202Z 32005KT 01/M02 A3015 RMK A01 T00131019  RH  079%=      5-min Rain = 0
KPA1 150203Z 32004KT 01/M02 A3015 RMK A01 T00131019  RH  079%=      5-min Rain = 0
KPA1 150204Z 32004KT 01/M02 A3015 RMK A01 T00131019  RH  079%=      5-min Rain = 0
KPA1 150205Z 33004KT 01/M02 A3015 RMK A01 T00141019  RH  079%=      5-min Rain = 0
KPA1 150206Z 33004KT 01/M02 A3015 RMK A01 T00131019  RH  079%=      5-min Rain = 0
KPA1 150207Z 33004KT 01/M02 A3015 RMK A01 T00131020  RH  079%=      5-min Rain = 0
KPA1 150208Z 32004KT 01/M02 A3015 RMK A01 T00131020  RH  079%=      5-min Rain = 0
KPA1 150209Z 31005KT 01/M02 A3015 RMK A01 T00131019  RH  079%=      5-min Rain = 0
KPA1 150210Z 31005KT 01/M02 A3015 RMK A01 T00121019  RH  079%=      5-min Rain = 0
KPA1 150211Z 31005KT 01/M02 A3015 RMK A01 T00121019  RH  080%=      5-min Rain = 0
KPA1 150212Z 31005KT 01/M02 A3015 RMK A01 T00101019  RH  081%=      5-min Rain = 0
KPA1 150213Z 31006KT 01/M02 A3015 RMK A01 T00091019  RH  082%=      5-min Rain = 0
KPA1 150214Z 31005KT 01/M02 A3015 RMK A01 T00081019  RH  082%=      5-min Rain = 0
KPA1 150215Z 31005KT 01/M02 A3015 RMK A01 T00081019  RH  083%=      5-min Rain = 0
KPA1 150216Z 30005KT 01/M02 A3015 RMK A01 T00071019  RH  083%=      5-min Rain = 0
KPA1 150217Z 30005KT 01/M02 A3015 RMK A01 T00071019  RH  083%=      5-min Rain = 0
KPA1 150218Z 30005KT 01/M02 A3015 RMK A01 T00071019  RH  083%=      5-min Rain = 0
KPA1 150219Z 31005KT 01/M02 A3015 RMK A01 T00071019  RH  083%=      5-min Rain = 0
KPA1 150220Z 31005KT 01/M02 A3015 RMK A01 T00071018  RH  083%=      5-min Rain = 0
KPA1 150221Z 31005KT 01/M02 A3015 RMK A01 T00071019  RH  082%=      5-min Rain = 0
KPA1 150222Z 31005KT 01/M02 A3015 RMK A01 T00081020  RH  082%=      5-min Rain = 0
KPA1 150223Z 32005KT 01/M02 A3015 RMK A01 T00081020  RH  082%=      5-min Rain = 0
KPA1 150224Z 32005KT 01/M02 A3015 RMK A01 T00091020  RH  081%=      5-min Rain = 0
KPA1 150225Z 32005KT 01/M02 A3015 RMK A01 T00091020  RH  081%=      5-min Rain = 0
KPA1 150226Z 31005KT 01/M02 A3015 RMK A01 T00101020  RH  080%=      5-min Rain = 0
KPA1 150227Z 31005KT 01/M02 A3015 RMK A01 T00111020  RH  080%=      5-min Rain = 0
KPA1 150228Z 31005KT 01/M02 A3015 RMK A01 T00101021  RH  080%=      5-min Rain = 0
KPA1 150229Z 31005KT 01/M02 A3015 RMK A01 T00091022  RH  080%=      5-min Rain = 0
KPA1 150230Z 31005KT 01/M02 A3015 RMK A01 T00081022  RH  080%=      5-min Rain = 0
KPA1 150231Z 31005KT 01/M02 A3015 RMK A01 T00071022  RH  081%=      5-min Rain = 0
KPA1 150232Z 31005KT 01/M02 A3015 RMK A01 T00071022  RH  081%=      5-min Rain = 0
KPA1 150233Z 31005KT 01/M02 A3015 RMK A01 T00071022  RH  081%=      5-min Rain = 0
KPA1 150234Z 31004KT 01/M02 A3015 RMK A01 T00051022  RH  082%=      5-min Rain = 0
KPA1 150235Z 31004KT 00/M02 A3015 RMK A01 T00041022  RH  083%=      5-min Rain = 0
KPA1 150236Z 32004KT 00/M02 A3016 RMK A01 T00031023  RH  083%=      5-min Rain = 0
KPA1 150237Z 32004KT 00/M02 A3016 RMK A01 T00021023  RH  083%=      5-min Rain = 0
KPA1 150238Z 31004KT 00/M02 A3016 RMK A01 T00021022  RH  084%=      5-min Rain = 0
KPA1 150239Z 31003KT 00/M02 A3016 RMK A01 T00011022  RH  085%=      5-min Rain = 0
KPA1 150240Z 31004KT 00/M02 A3016 RMK A01 T00011021  RH  085%=      5-min Rain = 0
KPA1 150241Z 31004KT 00/M02 A3016 RMK A01 T00011021  RH  085%=      5-min Rain = 0
KPA1 150242Z 32005KT 00/M02 A3016 RMK A01 T00011021  RH  085%=      5-min Rain = 0
KPA1 150243Z 32005KT 00/M02 A3016 RMK A01 T00011022  RH  085%=      5-min Rain = 0
KPA1 150244Z 32005KT 00/M02 A3016 RMK A01 T00011022  RH  084%=      5-min Rain = 0
KPA1 150245Z 31005KT 00/M02 A3016 RMK A01 T00021022  RH  083%=      5-min Rain = 0
KPA1 150246Z 31005KT 01/M02 A3016 RMK A01 T00051021  RH  083%=      5-min Rain = 0
KPA1 150247Z 31005KT 01/M02 A3015 RMK A01 T00051023  RH  082%=      5-min Rain = 0
KPA1 150248Z 31005KT 01/M02 A3015 RMK A01 T00051023  RH  081%=      5-min Rain = 0
KPA1 150249Z 31006KT 01/M02 A3015 RMK A01 T00051023  RH  082%=      5-min Rain = 0
KPA1 150250Z 31006KT 00/M03 A3015 RMK A01 T00031025  RH  082%=      5-min Rain = 0
KPA1 150251Z 31007KT 00/M03 A3015 RMK A01 T00021025  RH  082%=      5-min Rain = 0
KPA1 150252Z 31006KT 00/M03 A3015 RMK A01 T00021026  RH  082%=      5-min Rain = 0
KPA1 150253Z 31007KT 00/M03 A3016 RMK A01 T00021026  RH  082%=      5-min Rain = 0
KPA1 150254Z 31006KT 00/M03 A3016 RMK A01 T00021026  RH  082%=      5-min Rain = 0
KPA1 150255Z 31006KT 00/M03 A3016 RMK A01 T00021025  RH  082%=      5-min Rain = 0
KPA1 150256Z 31007KT 00/M03 A3016 RMK A01 T00031026  RH  081%=      5-min Rain = 0
KPA1 150257Z 31007KT 00/M03 A3016 RMK A01 T00031027  RH  081%=      5-min Rain = 0
KPA1 150258Z 31007KT 00/M03 A3016 RMK A01 T00021027  RH  081%=      5-min Rain = 0
KPA1 150259Z 31007KT 00/M03 A3016 RMK A01 T00021027  RH  081%=      5-min Rain = 0
KPA1 150300Z 31007KT 00/M03 A3016 RMK A01 T00021027  RH  081%=      5-min Rain = 0
KPA1 150301Z 31007KT 00/M03 A3016 RMK A01 T00021026  RH  081%=      5-min Rain = 0
KPA1 150302Z 31007KT 00/M03 A3016 RMK A01 T00031026  RH  081%=      5-min Rain = 0
KPA1 150303Z 31007KT 01/M02 A3016 RMK A01 T00051024  RH  081%=      5-min Rain = 0
KPA1 150304Z 31007KT 01/M02 A3016 RMK A01 T00061024  RH  080%=      5-min Rain = 0
KPA1 150305Z 31008KT 01/M03 A3016 RMK A01 T00061025  RH  080%=      5-min Rain = 0
KPA1 150306Z 31007KT 01/M03 A3016 RMK A01 T00051026  RH  080%=      5-min Rain = 0
KPA1 150307Z 31007KT 00/M03 A3016 RMK A01 T00041027  RH  080%=      5-min Rain = 0
KPA1 150308Z 31008KT 01/M03 A3016 RMK A01 T00051026  RH  080%=      5-min Rain = 0
KPA1 150309Z 31008KT 00/M03 A3016 RMK A01 T00041027  RH  080%=      5-min Rain = 0
KPA1 150310Z 31008KT 00/M03 A3016 RMK A01 T00041027  RH  080%=      5-min Rain = 0
KPA1 150311Z 31007KT 00/M03 A3016 RMK A01 T00041027  RH  080%=      5-min Rain = 0
KPA1 150312Z 31008KT 00/M03 A3016 RMK A01 T00031028  RH  080%=      5-min Rain = 0
KPA1 150313Z 31008KT 00/M03 A3016 RMK A01 T00021028  RH  080%=      5-min Rain = 0
KPA1 150314Z 31008KT 00/M03 A3016 RMK A01 T00021027  RH  081%=      5-min Rain = 0
KPA1 150315Z 31008KT 00/M03 A3016 RMK A01 T00011028  RH  081%=      5-min Rain = 0
KPA1 150316Z 31007KT 00/M03 A3016 RMK A01 T00011028  RH  081%=      5-min Rain = 0
KPA1 150317Z 31008KT 00/M03 A3016 RMK A01 T00011028  RH  081%=      5-min Rain = 0
KPA1 150318Z 31008KT 00/03 A3016 RMK A01 T00000-28  RH  081%=      5-min Rain = 0
KPA1 150319Z 31008KT 00/M03 A3016 RMK A01 T00011027  RH  081%=      5-min Rain = 0
KPA1 150320Z 31008KT 00/M03 A3016 RMK A01 T00011028  RH  081%=      5-min Rain = 0
KPA1 150321Z 31008KT 00/M03 A3016 RMK A01 T00011028  RH  081%=      5-min Rain = 0
KPA1 150322Z 31008KT 00/M03 A3016 RMK A01 T00011028  RH  081%=      5-min Rain = 0
KPA1 150323Z 31008KT 00/M03 A3016 RMK A01 T00021027  RH  081%=      5-min Rain = 0
KPA1 150324Z 31008KT 00/M03 A3016 RMK A01 T00021028  RH  081%=      5-min Rain = 0
KPA1 150325Z 31008KT 00/M03 A3016 RMK A01 T00021027  RH  081%=      5-min Rain = 0
KPA1 150326Z 31008KT 00/M03 A3016 RMK A01 T00021027  RH  081%=      5-min Rain = 0
KPA1 150327Z 31008KT 00/M03 A3016 RMK A01 T00021028  RH  080%=      5-min Rain = 0
KPA1 150328Z 31008KT 00/M03 A3016 RMK A01 T00021028  RH  080%=      5-min Rain = 0
KPA1 150329Z 31008KT 00/M03 A3016 RMK A01 T00021028  RH  080%=      5-min Rain = 0
KPA1 150330Z 31008KT 00/M03 A3016 RMK A01 T00031027  RH  080%=      5-min Rain = 0
KPA1 150331Z 31008KT 00/M03 A3016 RMK A01 T00031028  RH  080%=      5-min Rain = 0
KPA1 150332Z 31008KT 00/M03 A3016 RMK A01 T00031028  RH  080%=      5-min Rain = 0
KPA1 150333Z 31008KT 00/M03 A3016 RMK A01 T00021028  RH  080%=      5-min Rain = 0
KPA1 150334Z 31009KT 00/M03 A3016 RMK A01 T00021028  RH  080%=      5-min Rain = 0
KPA1 150335Z 31008KT 00/M03 A3016 RMK A01 T00041027  RH  080%=      5-min Rain = 0
KPA1 150336Z 31008KT 01/M03 A3016 RMK A01 T00051027  RH  079%=      5-min Rain = 0
KPA1 150337Z 31008KT 01/M03 A3016 RMK A01 T00061027  RH  079%=      5-min Rain = 0
KPA1 150338Z 31008KT 01/M03 A3016 RMK A01 T00051028  RH  079%=      5-min Rain = 0
KPA1 150339Z 31008KT 00/M03 A3016 RMK A01 T00041028  RH  079%=      5-min Rain = 0
KPA1 150340Z 31008KT 00/M03 A3016 RMK A01 T00041029  RH  079%=      5-min Rain = 0
KPA1 150341Z 31008KT 00/M03 A3016 RMK A01 T00031029  RH  079%=      5-min Rain = 0
KPA1 150342Z 31008KT 00/M03 A3016 RMK A01 T00031029  RH  079%=      5-min Rain = 0
KPA1 150343Z 31008KT 00/M03 A3016 RMK A01 T00021029  RH  079%=      5-min Rain = 0
KPA1 150344Z 31008KT 00/M03 A3016 RMK A01 T00021029  RH  080%=      5-min Rain = 0
KPA1 150345Z 31008KT 00/M03 A3016 RMK A01 T00021029  RH  080%=      5-min Rain = 0
KPA1 150346Z 31008KT 00/M03 A3016 RMK A01 T00021029  RH  080%=      5-min Rain = 0
KPA1 150347Z 31008KT 00/M03 A3016 RMK A01 T00021029  RH  080%=      5-min Rain = 0
KPA1 150348Z 31008KT 00/M03 A3016 RMK A01 T00021029  RH  079%=      5-min Rain = 0
KPA1 150349Z 31008KT 00/M03 A3016 RMK A01 T00021030  RH  079%=      5-min Rain = 0
KPA1 150350Z 31007KT 00/M03 A3016 RMK A01 T00021030  RH  079%=      5-min Rain = 0
KPA1 150351Z 31008KT 00/M03 A3016 RMK A01 T00011031  RH  079%=      5-min Rain = 0
KPA1 150352Z 31008KT 00/M03 A3016 RMK A01 T00011030  RH  080%=      5-min Rain = 0
KPA1 150353Z 31008KT 00/M03 A3016 RMK A01 T00011030  RH  080%=      5-min Rain = 0
KPA1 150354Z 31008KT 00/M03 A3016 RMK A01 T00011031  RH  080%=      5-min Rain = 0
KPA1 150355Z 31008KT 00/03 A3016 RMK A01 T00000-31  RH  080%=      5-min Rain = 0
KPA1 150356Z 31008KT 00/03 A3016 RMK A01 T00000-31  RH  080%=      5-min Rain = 0
KPA1 150357Z 31008KT 00/03 A3017 RMK A01 T00000-31  RH  080%=      5-min Rain = 0
KPA1 150358Z 31008KT M00/M03 A3017 RMK A01 T10011031  RH  080%=      5-min Rain = 0
KPA1 150359Z 31008KT M00/M03 A3017 RMK A01 T10011032  RH  080%=      5-min Rain = 0
KPA1 150400Z 31008KT M00/M03 A3016 RMK A01 T10011032  RH  080%=      5-min Rain = 0
KPA1 150401Z 31008KT M00/M03 A3017 RMK A01 T10011032  RH  080%=      5-min Rain = 0
KPA1 150402Z 31008KT M00/M03 A3017 RMK A01 T10011032  RH  080%=      5-min Rain = 0
KPA1 150403Z 31008KT M00/M03 A3017 RMK A01 T10011032  RH  080%=      5-min Rain = 0
KPA1 150404Z 31008KT M00/M03 A3017 RMK A01 T10011032  RH  079%=      5-min Rain = 0
KPA1 150405Z 31007KT M00/M03 A3017 RMK A01 T10011032  RH  079%=      5-min Rain = 0
KPA1 150406Z 31008KT M00/M03 A3017 RMK A01 T10011032  RH  079%=      5-min Rain = 0
KPA1 150407Z 31008KT M00/M03 A3017 RMK A01 T10011033  RH  079%=      5-min Rain = 0
KPA1 150408Z 31007KT M00/M03 A3017 RMK A01 T10011033  RH  079%=      5-min Rain = 0
KPA1 150409Z 31007KT M00/M03 A3017 RMK A01 T10011032  RH  079%=      5-min Rain = 0
KPA1 150410Z 32008KT M00/M03 A3017 RMK A01 T10021033  RH  079%=      5-min Rain = 0
KPA1 150411Z 31007KT M00/M03 A3017 RMK A01 T10011033  RH  079%=      5-min Rain = 0
KPA1 150412Z 31008KT 00/03 A3017 RMK A01 T00000-32  RH  079%=      5-min Rain = 0
KPA1 150413Z 31008KT 00/M03 A3017 RMK A01 T00021032  RH  078%=      5-min Rain = 0
KPA1 150414Z 31008KT 00/M03 A3017 RMK A01 T00021032  RH  078%=      5-min Rain = 0
KPA1 150415Z 31008KT 00/M03 A3017 RMK A01 T00011033  RH  078%=      5-min Rain = 0
KPA1 150416Z 31008KT 00/03 A3017 RMK A01 T00000-33  RH  078%=      5-min Rain = 0
KPA1 150417Z 31008KT 00/03 A3017 RMK A01 T00-00-33  RH  078%=      5-min Rain = 0
KPA1 150418Z 31008KT M00/M03 A3017 RMK A01 T10011034  RH  079%=      5-min Rain = 0
KPA1 150419Z 31007KT M00/M03 A3017 RMK A01 T10011034  RH  079%=      5-min Rain = 0
KPA1 150420Z 31007KT M00/M03 A3017 RMK A01 T10021034  RH  079%=      5-min Rain = 0
KPA1 150421Z 31007KT M00/M03 A3017 RMK A01 T10031034  RH  079%=      5-min Rain = 0
KPA1 150422Z 31007KT M00/M03 A3017 RMK A01 T10031034  RH  080%=      5-min Rain = 0
KPA1 150423Z 31007KT M00/M03 A3017 RMK A01 T10031034  RH  080%=      5-min Rain = 0
KPA1 150424Z 31007KT M00/M03 A3017 RMK A01 T10041034  RH  080%=      5-min Rain = 0
KPA1 150425Z 31006KT M01/M04 A3017 RMK A01 T10051035  RH  080%=      5-min Rain = 0
KPA1 150426Z 31006KT M01/M04 A3017 RMK A01 T10061035  RH  080%=      5-min Rain = 0
KPA1 150427Z 31006KT M01/M04 A3017 RMK A01 T10061035  RH  081%=      5-min Rain = 0
KPA1 150428Z 31006KT M01/M04 A3017 RMK A01 T10061035  RH  081%=      5-min Rain = 0
KPA1 150429Z 31006KT M01/M04 A3017 RMK A01 T10071035  RH  081%=      5-min Rain = 0
KPA1 150430Z 31006KT M01/M04 A3017 RMK A01 T10071035  RH  081%=      5-min Rain = 0
KPA1 150431Z 31006KT M01/M03 A3017 RMK A01 T10071034  RH  082%=      5-min Rain = 0
KPA1 150432Z 31006KT M01/M03 A3017 RMK A01 T10071034  RH  082%=      5-min Rain = 0
KPA1 150433Z 31006KT M01/M04 A3017 RMK A01 T10081035  RH  082%=      5-min Rain = 0
KPA1 150434Z 31006KT M01/M04 A3017 RMK A01 T10081035  RH  082%=      5-min Rain = 0
KPA1 150435Z 31006KT M01/M04 A3017 RMK A01 T10091035  RH  082%=      5-min Rain = 0
KPA1 150436Z 31006KT M01/M04 A3017 RMK A01 T10091035  RH  082%=      5-min Rain = 0
KPA1 150437Z 31006KT M01/M04 A3017 RMK A01 T10091036  RH  082%=      5-min Rain = 0
KPA1 150438Z 31006KT M01/M04 A3017 RMK A01 T10091036  RH  082%=      5-min Rain = 0
KPA1 150439Z 31006KT M01/M04 A3017 RMK A01 T10101036  RH  083%=      5-min Rain = 0
KPA1 150440Z 31007KT M01/M04 A3017 RMK A01 T10101035  RH  083%=      5-min Rain = 0
KPA1 150441Z 31007KT M01/M04 A3017 RMK A01 T10091035  RH  083%=      5-min Rain = 0
KPA1 150442Z 31007KT M01/M04 A3017 RMK A01 T10091036  RH  082%=      5-min Rain = 0
KPA1 150443Z 31007KT M01/M04 A3017 RMK A01 T10081035  RH  081%=      5-min Rain = 0
KPA1 150444Z 31007KT M01/M04 A3017 RMK A01 T10061035  RH  081%=      5-min Rain = 0
KPA1 150445Z 31007KT M01/M04 A3017 RMK A01 T10051035  RH  080%=      5-min Rain = 0
KPA1 150446Z 31006KT M01/M04 A3017 RMK A01 T10051035  RH  080%=      5-min Rain = 0
KPA1 150447Z 31007KT M01/M04 A3017 RMK A01 T10061037  RH  080%=      5-min Rain = 0
KPA1 150448Z 31007KT M01/M04 A3017 RMK A01 T10071037  RH  080%=      5-min Rain = 0
KPA1 150449Z 31007KT M01/M04 A3017 RMK A01 T10071037  RH  080%=      5-min Rain = 0
KPA1 150450Z 31008KT M01/M04 A3017 RMK A01 T10071037  RH  080%=      5-min Rain = 0
KPA1 150451Z 31008KT M01/M04 A3017 RMK A01 T10061037  RH  080%=      5-min Rain = 0
KPA1 150452Z 31008KT M01/M04 A3017 RMK A01 T10051036  RH  080%=      5-min Rain = 0
KPA1 150453Z 31008KT M01/M04 A3017 RMK A01 T10051036  RH  079%=      5-min Rain = 0
KPA1 150454Z 31008KT M00/M04 A3017 RMK A01 T10041036  RH  079%=      5-min Rain = 0
KPA1 150455Z 31008KT M00/M04 A3017 RMK A01 T10041037  RH  079%=      5-min Rain = 0
KPA1 150456Z 32008KT M00/M04 A3017 RMK A01 T10031036  RH  078%=      5-min Rain = 0
KPA1 150457Z 31008KT M00/M04 A3017 RMK A01 T10011036  RH  077%=      5-min Rain = 0
KPA1 150458Z 31008KT 00/04 A3017 RMK A01 T00000-36  RH  076%=      5-min Rain = 0
KPA1 150459Z 31008KT 00/04 A3017 RMK A01 T00000-37  RH  076%=      5-min Rain = 0
KPA1 150500Z 31008KT M00/M04 A3017 RMK A01 T10021038  RH  076%=      5-min Rain = 0
KPA1 150501Z 31007KT M00/M04 A3017 RMK A01 T10031038  RH  077%=      5-min Rain = 0
KPA1 150502Z 31007KT M00/M04 A3017 RMK A01 T10041038  RH  078%=      5-min Rain = 0
KPA1 150503Z 31007KT M01/M04 A3017 RMK A01 T10051038  RH  078%=      5-min Rain = 0
KPA1 150504Z 31008KT M01/M04 A3017 RMK A01 T10051038  RH  078%=      5-min Rain = 0
KPA1 150505Z 31008KT M01/M04 A3017 RMK A01 T10061038  RH  079%=      5-min Rain = 0
KPA1 150506Z 31008KT M01/M04 A3017 RMK A01 T10061038  RH  079%=      5-min Rain = 0
KPA1 150507Z 31008KT M01/M04 A3017 RMK A01 T10061038  RH  079%=      5-min Rain = 0
KPA1 150508Z 31008KT M01/M04 A3017 RMK A01 T10061038  RH  079%=      5-min Rain = 0
KPA1 150509Z 31007KT M01/M04 A3017 RMK A01 T10061038  RH  079%=      5-min Rain = 0
KPA1 150510Z 31008KT M01/M04 A3017 RMK A01 T10061038  RH  079%=      5-min Rain = 0
KPA1 150511Z 31008KT M01/M04 A3017 RMK A01 T10071039  RH  079%=      5-min Rain = 0
KPA1 150512Z 31008KT M01/M04 A3017 RMK A01 T10071039  RH  079%=      5-min Rain = 0
KPA1 150513Z 31008KT M01/M04 A3017 RMK A01 T10071038  RH  079%=      5-min Rain = 0
KPA1 150514Z 31008KT M01/M04 A3017 RMK A01 T10071039  RH  079%=      5-min Rain = 0
KPA1 150515Z 31008KT M01/M04 A3017 RMK A01 T10071039  RH  079%=      5-min Rain = 0
KPA1 150516Z 31008KT M01/M04 A3017 RMK A01 T10071039  RH  079%=      5-min Rain = 0
KPA1 150517Z 31008KT M01/M04 A3017 RMK A01 T10071039  RH  079%=      5-min Rain = 0
KPA1 150518Z 31007KT M01/M04 A3017 RMK A01 T10071039  RH  079%=      5-min Rain = 0
KPA1 150519Z 31007KT M01/M04 A3017 RMK A01 T10071039  RH  079%=      5-min Rain = 0
KPA1 150520Z 31007KT M01/M04 A3017 RMK A01 T10071039  RH  079%=      5-min Rain = 0
KPA1 150521Z 31007KT M01/M04 A3017 RMK A01 T10071039  RH  079%=      5-min Rain = 0
KPA1 150522Z 31007KT M01/M04 A3017 RMK A01 T10071039  RH  079%=      5-min Rain = 0
KPA1 150523Z 31007KT M01/M04 A3017 RMK A01 T10071039  RH  079%=      5-min Rain = 0
KPA1 150524Z 31007KT M01/M04 A3017 RMK A01 T10071039  RH  079%=      5-min Rain = 0
KPA1 150525Z 31008KT M01/M04 A3017 RMK A01 T10081039  RH  079%=      5-min Rain = 0
KPA1 150526Z 30008KT M01/M04 A3017 RMK A01 T10071038  RH  079%=      5-min Rain = 0
KPA1 150527Z 31007KT M01/M04 A3017 RMK A01 T10051038  RH  078%=      5-min Rain = 0
KPA1 150528Z 31008KT M00/M04 A3017 RMK A01 T10041038  RH  078%=      5-min Rain = 0
KPA1 150529Z 31008KT M00/M04 A3017 RMK A01 T10041038  RH  078%=      5-min Rain = 0
KPA1 150530Z 31008KT M01/M04 A3017 RMK A01 T10051039  RH  078%=      5-min Rain = 0
KPA1 150531Z 31008KT M01/M04 A3017 RMK A01 T10061040  RH  078%=      5-min Rain = 0
KPA1 150532Z 31007KT M01/M04 A3017 RMK A01 T10071040  RH  078%=      5-min Rain = 0
KPA1 150533Z 31008KT M01/M04 A3017 RMK A01 T10071040  RH  079%=      5-min Rain = 0
KPA1 150534Z 31007KT M01/M04 A3017 RMK A01 T10071040  RH  079%=      5-min Rain = 0
KPA1 150535Z 31007KT M01/M04 A3017 RMK A01 T10071040  RH  079%=      5-min Rain = 0
KPA1 150536Z 31008KT M01/M04 A3017 RMK A01 T10081040  RH  079%=      5-min Rain = 0
KPA1 150537Z 31007KT M01/M04 A3017 RMK A01 T10081040  RH  079%=      5-min Rain = 0
KPA1 150538Z 31008KT M01/M04 A3017 RMK A01 T10081040  RH  079%=      5-min Rain = 0
KPA1 150539Z 31008KT M01/M04 A3017 RMK A01 T10081040  RH  079%=      5-min Rain = 0
KPA1 150540Z 31008KT M01/M04 A3017 RMK A01 T10081039  RH  079%=      5-min Rain = 0
KPA1 150541Z 31008KT M01/M04 A3017 RMK A01 T10071039  RH  079%=      5-min Rain = 0
KPA1 150542Z 31008KT M01/M04 A3017 RMK A01 T10071039  RH  079%=      5-min Rain = 0
KPA1 150543Z 31008KT M01/M04 A3018 RMK A01 T10081040  RH  079%=      5-min Rain = 0
KPA1 150544Z 31008KT M01/M04 A3018 RMK A01 T10081040  RH  079%=      5-min Rain = 0
KPA1 150545Z 31008KT M01/M04 A3018 RMK A01 T10081040  RH  079%=      5-min Rain = 0
KPA1 150546Z 31008KT M01/M04 A3018 RMK A01 T10091041  RH  079%=      5-min Rain = 0
KPA1 150547Z 31008KT M01/M04 A3018 RMK A01 T10091040  RH  079%=      5-min Rain = 0
KPA1 150548Z 31009KT M01/M04 A3018 RMK A01 T10081040  RH  079%=      5-min Rain = 0
KPA1 150549Z 31008KT M01/M04 A3018 RMK A01 T10061039  RH  079%=      5-min Rain = 0
KPA1 150550Z 31008KT M01/M04 A3018 RMK A01 T10061039  RH  078%=      5-min Rain = 0
KPA1 150551Z 31008KT M01/M04 A3018 RMK A01 T10061040  RH  078%=      5-min Rain = 0
KPA1 150552Z 31008KT M01/M04 A3018 RMK A01 T10071040  RH  078%=      5-min Rain = 0
KPA1 150553Z 30007KT M01/M04 A3018 RMK A01 T10081040  RH  078%=      5-min Rain = 0
KPA1 150554Z 29007KT M01/M04 A3018 RMK A01 T10081041  RH  078%=      5-min Rain = 0
KPA1 150555Z 31008KT M01/M04 A3018 RMK A01 T10081041  RH  079%=      5-min Rain = 0
KPA1 150556Z 31008KT M01/M04 A3018 RMK A01 T10091041  RH  079%=      5-min Rain = 0
KPA1 150557Z 31008KT M01/M04 A3018 RMK A01 T10101041  RH  079%=      5-min Rain = 0
KPA1 150558Z 31008KT M01/M04 A3018 RMK A01 T10101041  RH  079%=      5-min Rain = 0
KPA1 150559Z 31008KT M01/M04 A3018 RMK A01 T10101041  RH  079%=      5-min Rain = 0

Page generated in 0.1464 seconds.